Time,TemperatureF,DewpointF,PressureIn,WindDirection,WindDirectionDegrees,WindSpeedMPH,WindSpeedGustMPH,Humidity,HourlyPrecipIn,Conditions,Clouds,dailyrainin,SoftwareType,DateUTC
2013-12-31 00:01:00,42.0,36.0,30.15,NW,322,0.0,0.0,79,0.00,,,0.00,Wunderground v.1.15,2013-12-31 05:01:00,
2013-12-31 00:02:00,42.0,36.0,30.15,NW,322,0.0,0.0,79,0.00,,,0.00,Wunderground v.1.15,2013-12-31 05:02:00,
2013-12-31 00:04:00,42.0,36.0,30.14,NW,322,0.0,0.0,79,0.00,,,0.00,Wunderground v.1.15,2013-12-31 05:04:00,
2013-12-31 00:05:00,42.0,36.3,30.14,NW,322,0.0,0.0,80,0.00,,,0.00,Wunderground v.1.15,2013-12-31 05:05:00,
2013-12-31 00:07:00,42.0,36.3,30.14,NW,322,0.0,0.0,80,0.00,,,0.00,Wunderground v.1.15,2013-12-31 05:07:00,
2013-12-31 00:08:00,42.0,36.3,30.14,NW,322,0.0,0.0,80,0.00,,,0.00,Wunderground v.1.15,2013-12-31 05:08:00,
2013-12-31 00:11:00,42.0,36.0,30.14,NE,39,0.0,1.0,79,0.00,,,0.00,Wunderground v.1.15,2013-12-31 05:11:00,
2013-12-31 00:13:00,42.0,36.3,30.14,NE,39,0.0,1.0,80,0.00,,,0.00,Wunderground v.1.15,2013-12-31 05:13:00,
2013-12-31 00:14:00,42.0,36.3,30.14,NE,39,0.0,1.0,80,0.00,,,0.00,Wunderground v.1.15,2013-12-31 05:14:00,
2013-12-31 00:15:00,42.0,36.3,30.14,NE,39,0.0,1.0,80,0.00,,,0.00,Wunderground v.1.15,2013-12-31 05:15:00,
2013-12-31 00:18:00,42.0,36.3,30.13,NE,39,0.0,1.0,80,0.00,,,0.00,Wunderground v.1.15,2013-12-31 05:18:00,
2013-12-31 00:19:00,42.0,36.3,30.13,NE,39,1.0,1.0,80,0.00,,,0.00,Wunderground v.1.15,2013-12-31 05:19:00,
2013-12-31 00:20:00,41.9,36.5,30.13,NE,39,1.0,1.0,81,0.00,,,0.00,Wunderground v.1.15,2013-12-31 05:20:00,
2013-12-31 00:21:00,41.9,36.2,30.13,NE,39,0.0,1.0,80,0.00,,,0.00,Wunderground v.1.15,2013-12-31 05:21:00,
2013-12-31 00:24:00,42.0,36.9,30.13,NE,39,0.0,1.0,82,0.00,,,0.00,Wunderground v.1.15,2013-12-31 05:24:00,
2013-12-31 00:25:00,41.9,36.8,30.14,NE,39,0.0,1.0,82,0.00,,,0.00,Wunderground v.1.15,2013-12-31 05:25:00,
2013-12-31 00:27:00,41.9,36.8,30.14,NE,39,0.0,1.0,82,0.00,,,0.00,Wunderground v.1.15,2013-12-31 05:27:00,
2013-12-31 00:28:00,41.8,36.7,30.14,NE,37,0.0,1.0,82,0.00,,,0.00,Wunderground v.1.15,2013-12-31 05:28:00,
2013-12-31 00:29:00,41.8,36.7,30.14,NE,37,0.0,1.0,82,0.00,,,0.00,Wunderground v.1.15,2013-12-31 05:29:00,
2013-12-31 00:31:00,41.7,36.6,30.14,NE,37,0.0,0.0,82,0.00,,,0.00,Wunderground v.1.15,2013-12-31 05:31:00,
2013-12-31 00:32:00,41.7,36.6,30.14,NE,37,0.0,0.0,82,0.00,,,0.00,Wunderground v.1.15,2013-12-31 05:32:00,
2013-12-31 00:33:00,41.7,36.6,30.14,NE,37,0.0,0.0,82,0.00,,,0.00,Wunderground v.1.15,2013-12-31 05:33:00,
2013-12-31 00:34:00,41.6,36.2,30.14,NE,37,0.0,0.0,81,0.00,,,0.00,Wunderground v.1.15,2013-12-31 05:34:00,
2013-12-31 00:38:00,41.6,36.5,30.14,NE,37,0.0,0.0,82,0.00,,,0.00,Wunderground v.1.15,2013-12-31 05:38:00,
2013-12-31 00:40:00,41.5,36.4,30.14,NE,37,0.0,0.0,82,0.00,,,0.00,Wunderground v.1.15,2013-12-31 05:40:00,
2013-12-31 00:42:00,41.5,36.4,30.14,NE,37,0.0,0.0,82,0.00,,,0.00,Wunderground v.1.15,2013-12-31 05:42:00,
2013-12-31 00:44:00,41.5,36.1,30.14,NE,37,0.0,0.0,81,0.00,,,0.00,Wunderground v.1.15,2013-12-31 05:44:00,
2013-12-31 00:45:00,41.5,36.4,30.14,NE,37,0.0,0.0,82,0.00,,,0.00,Wunderground v.1.15,2013-12-31 05:45:00,
2013-12-31 00:47:00,41.5,36.4,30.14,NE,37,0.0,0.0,82,0.00,,,0.00,Wunderground v.1.15,2013-12-31 05:47:00,
2013-12-31 00:49:00,41.5,36.1,30.14,NE,37,0.0,0.0,81,0.00,,,0.00,Wunderground v.1.15,2013-12-31 05:49:00,
2013-12-31 00:50:00,41.5,36.4,30.14,NE,37,0.0,0.0,82,0.00,,,0.00,Wunderground v.1.15,2013-12-31 05:50:00,
2013-12-31 00:52:00,41.5,36.7,30.14,NE,37,0.0,0.0,83,0.00,,,0.00,Wunderground v.1.15,2013-12-31 05:52:00,
2013-12-31 00:55:00,41.5,36.4,30.14,NE,37,0.0,0.0,82,0.00,,,0.00,Wunderground v.1.15,2013-12-31 05:55:00,
2013-12-31 00:56:00,41.5,36.7,30.14,NE,37,0.0,0.0,83,0.00,,,0.00,Wunderground v.1.15,2013-12-31 05:56:00,
2013-12-31 00:57:00,41.5,36.7,30.14,NE,37,0.0,0.0,83,0.00,,,0.00,Wunderground v.1.15,2013-12-31 05:57:00,
2013-12-31 00:59:00,41.5,36.7,30.13,NE,37,0.0,0.0,83,0.00,,,0.00,Wunderground v.1.15,2013-12-31 05:59:00,
2013-12-31 01:00:00,41.4,36.9,30.13,NE,37,0.0,0.0,84,0.00,,,0.00,Wunderground v.1.15,2013-12-31 06:00:00,
2013-12-31 01:03:00,41.4,36.3,30.14,NW,308,0.0,1.0,82,0.00,,,0.00,Wunderground v.1.15,2013-12-31 06:03:00,
2013-12-31 01:06:00,41.4,36.3,30.13,NNE,15,0.0,1.0,82,0.00,,,0.00,Wunderground v.1.15,2013-12-31 06:06:00,
2013-12-31 01:09:00,41.5,36.1,30.13,NNE,26,1.0,1.0,81,0.00,,,0.00,Wunderground v.1.15,2013-12-31 06:09:00,
2013-12-31 01:10:00,41.5,36.4,30.13,NE,53,1.0,1.0,82,0.00,,,0.00,Wunderground v.1.15,2013-12-31 06:10:00,
2013-12-31 01:11:00,41.5,36.1,30.13,NE,53,0.0,1.0,81,0.00,,,0.00,Wunderground v.1.15,2013-12-31 06:11:00,
2013-12-31 01:13:00,41.5,36.4,30.13,NE,52,0.0,1.0,82,0.00,,,0.00,Wunderground v.1.15,2013-12-31 06:13:00,
2013-12-31 01:16:00,41.5,36.4,30.13,NE,51,0.0,1.0,82,0.00,,,0.00,Wunderground v.1.15,2013-12-31 06:16:00,
2013-12-31 01:20:00,41.6,36.5,30.14,NE,37,0.0,0.0,82,0.00,,,0.00,Wunderground v.1.15,2013-12-31 06:20:00,
2013-12-31 01:21:00,41.5,36.1,30.14,NE,37,0.0,0.0,81,0.00,,,0.00,Wunderground v.1.15,2013-12-31 06:21:00,
2013-12-31 01:22:00,41.6,36.2,30.14,NE,37,0.0,0.0,81,0.00,,,0.00,Wunderground v.1.15,2013-12-31 06:22:00,
2013-12-31 01:24:00,41.6,36.2,30.14,NNE,33,1.0,1.0,81,0.00,,,0.00,Wunderground v.1.15,2013-12-31 06:24:00,
2013-12-31 01:26:00,41.6,36.2,30.14,NNW,331,0.0,1.0,81,0.00,,,0.00,Wunderground v.1.15,2013-12-31 06:26:00,
2013-12-31 01:28:00,41.6,36.2,30.14,NNW,331,0.0,1.0,81,0.00,,,0.00,Wunderground v.1.15,2013-12-31 06:28:00,
2013-12-31 01:31:00,41.6,36.2,30.14,NNW,344,0.0,0.0,81,0.00,,,0.00,Wunderground v.1.15,2013-12-31 06:31:00,
2013-12-31 01:33:00,41.6,36.5,30.14,NNW,345,0.0,0.0,82,0.00,,,0.00,Wunderground v.1.15,2013-12-31 06:33:00,
2013-12-31 01:34:00,41.6,36.2,30.14,NNW,344,0.0,0.0,81,0.00,,,0.00,Wunderground v.1.15,2013-12-31 06:34:00,
2013-12-31 01:35:00,41.6,36.5,30.14,NNW,344,0.0,0.0,82,0.00,,,0.00,Wunderground v.1.15,2013-12-31 06:35:00,
2013-12-31 01:36:00,41.6,36.5,30.14,NNW,343,1.0,1.0,82,0.00,,,0.00,Wunderground v.1.15,2013-12-31 06:36:00,
2013-12-31 01:38:00,41.6,36.2,30.14,NNW,342,0.0,1.0,81,0.00,,,0.00,Wunderground v.1.15,2013-12-31 06:38:00,
2013-12-31 01:39:00,41.6,36.2,30.14,NNW,342,0.0,1.0,81,0.00,,,0.00,Wunderground v.1.15,2013-12-31 06:39:00,
2013-12-31 01:40:00,41.6,36.2,30.14,NNW,342,0.0,0.0,81,0.00,,,0.00,Wunderground v.1.15,2013-12-31 06:40:00,
2013-12-31 01:41:00,41.5,36.1,30.14,NNW,342,0.0,0.0,81,0.00,,,0.00,Wunderground v.1.15,2013-12-31 06:41:00,
2013-12-31 01:42:00,41.5,36.1,30.14,NNW,342,0.0,0.0,81,0.00,,,0.00,Wunderground v.1.15,2013-12-31 06:42:00,
2013-12-31 01:43:00,41.5,36.4,30.14,NNW,343,0.0,0.0,82,0.00,,,0.00,Wunderground v.1.15,2013-12-31 06:43:00,
2013-12-31 01:47:00,41.5,36.7,30.13,NNW,343,0.0,0.0,83,0.00,,,0.00,Wunderground v.1.15,2013-12-31 06:47:00,
2013-12-31 01:48:00,41.4,36.3,30.13,NNW,343,0.0,0.0,82,0.00,,,0.00,Wunderground v.1.15,2013-12-31 06:48:00,
2013-12-31 01:52:00,41.4,36.3,30.14,NW,314,0.0,1.0,82,0.00,,,0.00,Wunderground v.1.15,2013-12-31 06:52:00,
2013-12-31 01:53:00,41.4,36.3,30.14,NW,315,0.0,1.0,82,0.00,,,0.00,Wunderground v.1.15,2013-12-31 06:53:00,
2013-12-31 01:54:00,41.4,36.3,30.14,NW,315,0.0,1.0,82,0.00,,,0.00,Wunderground v.1.15,2013-12-31 06:54:00,
2013-12-31 01:55:00,41.4,36.0,30.14,NW,315,0.0,1.0,81,0.00,,,0.00,Wunderground v.1.15,2013-12-31 06:55:00,
2013-12-31 01:56:00,41.4,36.0,30.14,NW,315,0.0,1.0,81,0.00,,,0.00,Wunderground v.1.15,2013-12-31 06:56:00,
2013-12-31 01:57:00,41.4,36.0,30.14,NW,315,0.0,1.0,81,0.00,,,0.00,Wunderground v.1.15,2013-12-31 06:57:00,
2013-12-31 01:59:00,41.4,36.0,30.14,NW,315,0.0,1.0,81,0.00,,,0.00,Wunderground v.1.15,2013-12-31 06:59:00,
2013-12-31 02:00:00,41.3,35.9,30.14,NW,314,0.0,0.0,81,0.00,,,0.00,Wunderground v.1.15,2013-12-31 07:00:00,
2013-12-31 02:01:00,41.3,35.9,30.14,NW,315,0.0,0.0,81,0.00,,,0.00,Wunderground v.1.15,2013-12-31 07:01:00,
2013-12-31 02:02:00,41.4,36.0,30.14,NW,314,0.0,0.0,81,0.00,,,0.00,Wunderground v.1.15,2013-12-31 07:02:00,
2013-12-31 02:04:00,41.4,36.3,30.14,NW,315,0.0,0.0,82,0.00,,,0.00,Wunderground v.1.15,2013-12-31 07:04:00,
2013-12-31 02:05:00,41.4,36.3,30.14,NW,315,0.0,0.0,82,0.00,,,0.00,Wunderground v.1.15,2013-12-31 07:05:00,
2013-12-31 02:06:00,41.3,36.5,30.14,NW,315,0.0,0.0,83,0.00,,,0.00,Wunderground v.1.15,2013-12-31 07:06:00,
2013-12-31 02:07:00,41.3,36.5,30.14,NW,315,0.0,0.0,83,0.00,,,0.00,Wunderground v.1.15,2013-12-31 07:07:00,
2013-12-31 02:09:00,41.3,36.5,30.14,NW,314,0.0,1.0,83,0.00,,,0.00,Wunderground v.1.15,2013-12-31 07:09:00,
2013-12-31 02:10:00,41.3,36.5,30.14,NW,315,0.0,0.0,83,0.00,,,0.00,Wunderground v.1.15,2013-12-31 07:10:00,
2013-12-31 02:11:00,41.3,36.5,30.14,NW,315,0.0,0.0,83,0.00,,,0.00,Wunderground v.1.15,2013-12-31 07:11:00,
2013-12-31 02:12:00,41.2,36.4,30.14,NW,315,0.0,0.0,83,0.00,,,0.00,Wunderground v.1.15,2013-12-31 07:12:00,
2013-12-31 02:14:00,41.2,36.7,30.14,NW,315,0.0,0.0,84,0.00,,,0.00,Wunderground v.1.15,2013-12-31 07:14:00,
2013-12-31 02:16:00,41.2,36.7,30.14,NW,315,0.0,0.0,84,0.00,,,0.00,Wunderground v.1.15,2013-12-31 07:16:00,
2013-12-31 02:17:00,41.2,36.7,30.14,NW,315,0.0,0.0,84,0.00,,,0.00,Wunderground v.1.15,2013-12-31 07:17:00,
2013-12-31 02:18:00,41.2,36.7,30.14,NW,315,0.0,0.0,84,0.00,,,0.00,Wunderground v.1.15,2013-12-31 07:18:00,
2013-12-31 02:20:00,41.1,36.6,30.14,NW,315,0.0,0.0,84,0.00,,,0.00,Wunderground v.1.15,2013-12-31 07:20:00,
2013-12-31 02:21:00,41.1,36.6,30.14,NW,315,0.0,0.0,84,0.00,,,0.00,Wunderground v.1.15,2013-12-31 07:21:00,
2013-12-31 02:22:00,41.1,36.6,30.14,NW,315,0.0,0.0,84,0.00,,,0.00,Wunderground v.1.15,2013-12-31 07:22:00,
2013-12-31 02:23:00,41.1,36.6,30.14,NW,315,0.0,0.0,84,0.00,,,0.00,Wunderground v.1.15,2013-12-31 07:23:00,
2013-12-31 02:26:00,41.0,36.8,30.14,NW,315,0.0,0.0,85,0.00,,,0.00,Wunderground v.1.15,2013-12-31 07:26:00,
2013-12-31 02:27:00,41.0,36.5,30.14,NW,315,0.0,0.0,84,0.00,,,0.00,Wunderground v.1.15,2013-12-31 07:27:00,
2013-12-31 02:28:00,41.0,36.5,30.13,NW,315,0.0,0.0,84,0.00,,,0.00,Wunderground v.1.15,2013-12-31 07:28:00,
2013-12-31 02:31:00,41.0,36.2,30.13,ENE,70,1.0,1.0,83,0.00,,,0.00,Wunderground v.1.15,2013-12-31 07:31:00,
2013-12-31 02:32:00,41.0,36.2,30.13,ENE,70,0.0,1.0,83,0.00,,,0.00,Wunderground v.1.15,2013-12-31 07:32:00,
2013-12-31 02:33:00,41.0,36.2,30.13,ENE,71,0.0,1.0,83,0.00,,,0.00,Wunderground v.1.15,2013-12-31 07:33:00,
2013-12-31 02:36:00,41.1,36.3,30.14,ENE,70,0.0,1.0,83,0.00,,,0.00,Wunderground v.1.15,2013-12-31 07:36:00,
2013-12-31 02:37:00,41.1,36.3,30.14,ENE,70,0.0,1.0,83,0.00,,,0.00,Wunderground v.1.15,2013-12-31 07:37:00,
2013-12-31 02:38:00,41.1,36.3,30.14,ENE,70,0.0,1.0,83,0.00,,,0.00,Wunderground v.1.15,2013-12-31 07:38:00,
2013-12-31 02:39:00,41.0,36.2,30.14,ENE,71,0.0,1.0,83,0.00,,,0.00,Wunderground v.1.15,2013-12-31 07:39:00,
2013-12-31 02:41:00,41.0,36.5,30.14,ENE,71,0.0,0.0,84,0.00,,,0.00,Wunderground v.1.15,2013-12-31 07:41:00,
2013-12-31 02:42:00,41.0,36.5,30.14,ENE,71,1.0,1.0,84,0.00,,,0.00,Wunderground v.1.15,2013-12-31 07:42:00,
2013-12-31 02:43:00,41.0,36.2,30.14,ENE,70,0.0,1.0,83,0.00,,,0.00,Wunderground v.1.15,2013-12-31 07:43:00,
2013-12-31 02:44:00,41.0,36.2,30.14,ENE,70,0.0,1.0,83,0.00,,,0.00,Wunderground v.1.15,2013-12-31 07:44:00,
2013-12-31 02:45:00,41.1,36.3,30.14,ENE,71,0.0,1.0,83,0.00,,,0.00,Wunderground v.1.15,2013-12-31 07:45:00,
2013-12-31 02:46:00,41.1,36.3,30.14,ENE,70,0.0,1.0,83,0.00,,,0.00,Wunderground v.1.15,2013-12-31 07:46:00,
2013-12-31 02:47:00,41.1,36.3,30.14,ENE,71,0.0,1.0,83,0.00,,,0.00,Wunderground v.1.15,2013-12-31 07:47:00,
2013-12-31 02:48:00,41.1,36.3,30.14,ENE,71,0.0,1.0,83,0.00,,,0.00,Wunderground v.1.15,2013-12-31 07:48:00,
2013-12-31 02:49:00,41.1,36.3,30.14,ENE,71,0.0,1.0,83,0.00,,,0.00,Wunderground v.1.15,2013-12-31 07:49:00,
2013-12-31 02:50:00,41.0,36.2,30.14,ENE,70,0.0,0.0,83,0.00,,,0.00,Wunderground v.1.15,2013-12-31 07:50:00,
2013-12-31 02:51:00,41.1,36.3,30.14,ENE,70,0.0,0.0,83,0.00,,,0.00,Wunderground v.1.15,2013-12-31 07:51:00,
2013-12-31 02:52:00,41.1,36.3,30.14,ENE,70,0.0,0.0,83,0.00,,,0.00,Wunderground v.1.15,2013-12-31 07:52:00,
2013-12-31 02:53:00,41.0,36.2,30.14,ENE,70,0.0,0.0,83,0.00,,,0.00,Wunderground v.1.15,2013-12-31 07:53:00,
2013-12-31 02:55:00,41.0,36.2,30.14,ENE,71,0.0,0.0,83,0.00,,,0.00,Wunderground v.1.15,2013-12-31 07:55:00,
2013-12-31 02:57:00,41.0,36.2,30.15,ENE,71,0.0,0.0,83,0.00,,,0.00,Wunderground v.1.15,2013-12-31 07:57:00,
2013-12-31 02:59:00,40.9,35.8,30.15,ENE,71,0.0,0.0,82,0.00,,,0.00,Wunderground v.1.15,2013-12-31 07:59:00,
2013-12-31 03:00:00,41.0,35.9,30.15,ENE,71,0.0,0.0,82,0.00,,,0.00,Wunderground v.1.15,2013-12-31 08:00:00,
2013-12-31 03:02:00,40.9,36.1,30.15,ENE,70,0.0,0.0,83,0.00,,,0.00,Wunderground v.1.15,2013-12-31 08:02:00,
2013-12-31 03:03:00,40.9,36.1,30.15,ENE,70,0.0,0.0,83,0.00,,,0.00,Wunderground v.1.15,2013-12-31 08:03:00,
2013-12-31 03:04:00,40.9,36.1,30.15,ENE,70,0.0,0.0,83,0.00,,,0.00,Wunderground v.1.15,2013-12-31 08:04:00,
2013-12-31 03:05:00,40.9,36.1,30.15,ENE,71,0.0,0.0,83,0.00,,,0.00,Wunderground v.1.15,2013-12-31 08:05:00,
2013-12-31 03:06:00,40.9,36.1,30.15,ENE,71,0.0,0.0,83,0.00,,,0.00,Wunderground v.1.15,2013-12-31 08:06:00,
2013-12-31 03:07:00,40.9,36.1,30.15,ENE,70,0.0,0.0,83,0.00,,,0.00,Wunderground v.1.15,2013-12-31 08:07:00,
2013-12-31 03:08:00,40.9,36.1,30.15,ENE,70,0.0,0.0,83,0.00,,,0.00,Wunderground v.1.15,2013-12-31 08:08:00,
2013-12-31 03:09:00,40.9,36.1,30.15,ENE,70,0.0,0.0,83,0.00,,,0.00,Wunderground v.1.15,2013-12-31 08:09:00,
2013-12-31 03:11:00,40.8,36.0,30.15,ENE,71,0.0,0.0,83,0.00,,,0.00,Wunderground v.1.15,2013-12-31 08:11:00,
2013-12-31 03:12:00,40.8,36.0,30.15,ENE,71,0.0,0.0,83,0.00,,,0.00,Wunderground v.1.15,2013-12-31 08:12:00,
2013-12-31 03:13:00,40.8,36.0,30.15,ENE,70,0.0,0.0,83,0.00,,,0.00,Wunderground v.1.15,2013-12-31 08:13:00,
2013-12-31 03:14:00,40.8,36.0,30.15,ENE,70,0.0,0.0,83,0.00,,,0.00,Wunderground v.1.15,2013-12-31 08:14:00,
2013-12-31 03:16:00,40.8,36.3,30.15,ENE,71,0.0,0.0,84,0.00,,,0.00,Wunderground v.1.15,2013-12-31 08:16:00,
2013-12-31 03:18:00,40.8,36.3,30.16,ENE,71,0.0,0.0,84,0.00,,,0.00,Wunderground v.1.15,2013-12-31 08:18:00,
2013-12-31 03:19:00,40.7,36.2,30.16,ENE,71,0.0,0.0,84,0.00,,,0.00,Wunderground v.1.15,2013-12-31 08:19:00,
2013-12-31 03:20:00,40.7,36.2,30.16,ENE,70,0.0,0.0,84,0.00,,,0.00,Wunderground v.1.15,2013-12-31 08:20:00,
2013-12-31 03:21:00,40.7,36.2,30.16,ENE,71,0.0,0.0,84,0.00,,,0.00,Wunderground v.1.15,2013-12-31 08:21:00,
2013-12-31 03:22:00,40.7,36.2,30.16,ENE,70,0.0,0.0,84,0.00,,,0.00,Wunderground v.1.15,2013-12-31 08:22:00,
2013-12-31 03:24:00,40.6,36.4,30.16,ENE,71,0.0,0.0,85,0.00,,,0.00,Wunderground v.1.15,2013-12-31 08:24:00,
2013-12-31 03:25:00,40.7,36.5,30.16,ENE,71,0.0,0.0,85,0.00,,,0.00,Wunderground v.1.15,2013-12-31 08:25:00,
2013-12-31 03:26:00,40.6,36.4,30.16,ENE,71,0.0,0.0,85,0.00,,,0.00,Wunderground v.1.15,2013-12-31 08:26:00,
2013-12-31 03:27:00,40.6,36.4,30.16,ENE,71,0.0,0.0,85,0.00,,,0.00,Wunderground v.1.15,2013-12-31 08:27:00,
2013-12-31 03:29:00,40.6,36.1,30.16,ENE,71,0.0,0.0,84,0.00,,,0.00,Wunderground v.1.15,2013-12-31 08:29:00,
2013-12-31 03:30:00,40.5,36.0,30.16,ENE,71,0.0,0.0,84,0.00,,,0.00,Wunderground v.1.15,2013-12-31 08:30:00,
2013-12-31 03:32:00,40.5,36.3,30.16,ENE,70,0.0,0.0,85,0.00,,,0.00,Wunderground v.1.15,2013-12-31 08:32:00,
2013-12-31 03:34:00,40.4,36.2,30.16,ENE,70,0.0,0.0,85,0.00,,,0.00,Wunderground v.1.15,2013-12-31 08:34:00,
2013-12-31 03:35:00,40.3,36.1,30.16,ENE,70,0.0,0.0,85,0.00,,,0.00,Wunderground v.1.15,2013-12-31 08:35:00,
2013-12-31 03:37:00,40.2,35.8,30.16,ENE,70,0.0,0.0,84,0.00,,,0.00,Wunderground v.1.15,2013-12-31 08:37:00,
2013-12-31 03:40:00,40.1,36.0,30.16,ENE,70,0.0,0.0,85,0.00,,,0.00,Wunderground v.1.15,2013-12-31 08:40:00,
2013-12-31 03:41:00,40.1,36.0,30.16,ENE,71,0.0,0.0,85,0.00,,,0.00,Wunderground v.1.15,2013-12-31 08:41:00,
2013-12-31 03:42:00,40.0,35.9,30.16,ENE,70,0.0,0.0,85,0.00,,,0.00,Wunderground v.1.15,2013-12-31 08:42:00,
2013-12-31 03:43:00,39.9,35.8,30.16,ENE,71,0.0,0.0,85,0.00,,,0.00,Wunderground v.1.15,2013-12-31 08:43:00,
2013-12-31 03:45:00,39.8,35.7,30.16,ENE,70,0.0,0.0,85,0.00,,,0.00,Wunderground v.1.15,2013-12-31 08:45:00,
2013-12-31 03:46:00,39.8,35.7,30.16,ENE,71,0.0,0.0,85,0.00,,,0.00,Wunderground v.1.15,2013-12-31 08:46:00,
2013-12-31 03:47:00,39.7,35.6,30.16,ENE,70,0.0,0.0,85,0.00,,,0.00,Wunderground v.1.15,2013-12-31 08:47:00,
2013-12-31 03:48:00,39.7,35.6,30.16,ENE,71,0.0,0.0,85,0.00,,,0.00,Wunderground v.1.15,2013-12-31 08:48:00,
2013-12-31 03:51:00,39.5,35.7,30.16,ENE,71,0.0,0.0,86,0.00,,,0.00,Wunderground v.1.15,2013-12-31 08:51:00,
2013-12-31 03:52:00,39.3,35.5,30.16,ENE,70,0.0,0.0,86,0.00,,,0.00,Wunderground v.1.15,2013-12-31 08:52:00,
2013-12-31 03:53:00,39.3,35.5,30.16,ENE,71,0.0,0.0,86,0.00,,,0.00,Wunderground v.1.15,2013-12-31 08:53:00,
2013-12-31 03:56:00,39.1,35.3,30.16,ENE,71,0.0,0.0,86,0.00,,,0.00,Wunderground v.1.15,2013-12-31 08:56:00,
2013-12-31 03:57:00,39.0,35.5,30.16,ENE,70,0.0,1.0,87,0.00,,,0.00,Wunderground v.1.15,2013-12-31 08:57:00,
2013-12-31 03:58:00,38.9,35.4,30.16,ENE,71,0.0,1.0,87,0.00,,,0.00,Wunderground v.1.15,2013-12-31 08:58:00,
2013-12-31 04:01:00,38.9,35.4,30.16,ENE,71,0.0,1.0,87,0.00,,,0.00,Wunderground v.1.15,2013-12-31 09:01:00,
2013-12-31 04:03:00,38.8,35.3,30.16,ENE,71,0.0,1.0,87,0.00,,,0.00,Wunderground v.1.15,2013-12-31 09:03:00,
2013-12-31 04:04:00,38.7,35.2,30.16,ENE,71,0.0,1.0,87,0.00,,,0.00,Wunderground v.1.15,2013-12-31 09:04:00,
2013-12-31 04:06:00,38.6,35.1,30.16,ENE,70,0.0,1.0,87,0.00,,,0.00,Wunderground v.1.15,2013-12-31 09:06:00,
2013-12-31 04:07:00,38.6,35.1,30.16,ENE,71,0.0,1.0,87,0.00,,,0.00,Wunderground v.1.15,2013-12-31 09:07:00,
2013-12-31 04:08:00,38.5,35.0,30.16,ENE,70,0.0,1.0,87,0.00,,,0.00,Wunderground v.1.15,2013-12-31 09:08:00,
2013-12-31 04:09:00,38.5,35.0,30.16,ENE,70,0.0,1.0,87,0.00,,,0.00,Wunderground v.1.15,2013-12-31 09:09:00,
2013-12-31 04:11:00,38.4,34.9,30.16,ENE,71,0.0,0.0,87,0.00,,,0.00,Wunderground v.1.15,2013-12-31 09:11:00,
2013-12-31 04:12:00,38.3,34.8,30.16,ENE,71,0.0,0.0,87,0.00,,,0.00,Wunderground v.1.15,2013-12-31 09:12:00,
2013-12-31 04:13:00,38.3,34.8,30.16,ENE,71,0.0,0.0,87,0.00,,,0.00,Wunderground v.1.15,2013-12-31 09:13:00,
2013-12-31 04:14:00,38.2,35.0,30.16,ENE,70,1.0,1.0,88,0.00,,,0.00,Wunderground v.1.15,2013-12-31 09:14:00,
2013-12-31 04:16:00,38.2,35.0,30.17,ENE,70,1.0,1.0,88,0.00,,,0.00,Wunderground v.1.15,2013-12-31 09:16:00,
2013-12-31 04:17:00,38.1,34.9,30.17,ENE,71,0.0,1.0,88,0.00,,,0.00,Wunderground v.1.15,2013-12-31 09:17:00,
2013-12-31 04:18:00,38.1,34.9,30.17,ENE,70,0.0,1.0,88,0.00,,,0.00,Wunderground v.1.15,2013-12-31 09:18:00,
2013-12-31 04:20:00,38.0,34.8,30.17,ENE,71,0.0,0.0,88,0.00,,,0.00,Wunderground v.1.15,2013-12-31 09:20:00,
2013-12-31 04:22:00,37.9,34.7,30.17,ENE,71,0.0,0.0,88,0.00,,,0.00,Wunderground v.1.15,2013-12-31 09:22:00,
2013-12-31 04:23:00,37.9,34.7,30.17,ENE,71,0.0,0.0,88,0.00,,,0.00,Wunderground v.1.15,2013-12-31 09:23:00,
2013-12-31 04:27:00,37.7,34.5,30.17,ENE,70,0.0,0.0,88,0.00,,,0.00,Wunderground v.1.15,2013-12-31 09:27:00,
2013-12-31 04:28:00,37.7,34.5,30.17,ENE,70,0.0,1.0,88,0.00,,,0.00,Wunderground v.1.15,2013-12-31 09:28:00,
2013-12-31 04:29:00,37.7,34.8,30.17,SSE,159,1.0,1.0,89,0.00,,,0.00,Wunderground v.1.15,2013-12-31 09:29:00,
2013-12-31 04:32:00,37.6,34.7,30.17,SW,229,1.0,1.0,89,0.00,,,0.00,Wunderground v.1.15,2013-12-31 09:32:00,
2013-12-31 04:33:00,37.6,34.7,30.17,SW,229,0.0,1.0,89,0.00,,,0.00,Wunderground v.1.15,2013-12-31 09:33:00,
2013-12-31 04:34:00,37.5,34.6,30.17,SW,229,0.0,1.0,89,0.00,,,0.00,Wunderground v.1.15,2013-12-31 09:34:00,
2013-12-31 04:37:00,37.4,34.5,30.18,WSW,249,1.0,2.0,89,0.00,,,0.00,Wunderground v.1.15,2013-12-31 09:37:00,
2013-12-31 04:38:00,37.4,34.5,30.18,WSW,249,0.0,2.0,89,0.00,,,0.00,Wunderground v.1.15,2013-12-31 09:38:00,
2013-12-31 04:39:00,37.4,34.5,30.18,WSW,249,0.0,2.0,89,0.00,,,0.00,Wunderground v.1.15,2013-12-31 09:39:00,
2013-12-31 04:42:00,37.4,34.7,30.18,WSW,249,0.0,1.0,90,0.00,,,0.00,Wunderground v.1.15,2013-12-31 09:42:00,
2013-12-31 04:43:00,37.5,34.8,30.18,WSW,249,0.0,1.0,90,0.00,,,0.00,Wunderground v.1.15,2013-12-31 09:43:00,
2013-12-31 04:44:00,37.4,34.7,30.17,WSW,249,0.0,1.0,90,0.00,,,0.00,Wunderground v.1.15,2013-12-31 09:44:00,
2013-12-31 04:47:00,37.4,34.7,30.18,SW,236,0.0,2.0,90,0.00,,,0.00,Wunderground v.1.15,2013-12-31 09:47:00,
2013-12-31 04:48:00,37.4,34.5,30.17,SW,236,0.0,2.0,89,0.00,,,0.00,Wunderground v.1.15,2013-12-31 09:48:00,
2013-12-31 04:50:00,37.3,34.6,30.18,SW,236,0.0,0.0,90,0.00,,,0.00,Wunderground v.1.15,2013-12-31 09:50:00,
2013-12-31 04:51:00,37.3,34.6,30.18,SW,236,0.0,1.0,90,0.00,,,0.00,Wunderground v.1.15,2013-12-31 09:51:00,
2013-12-31 04:52:00,37.2,34.5,30.18,SW,236,0.0,1.0,90,0.00,,,0.00,Wunderground v.1.15,2013-12-31 09:52:00,
2013-12-31 04:53:00,37.1,34.4,30.18,SW,236,0.0,1.0,90,0.00,,,0.00,Wunderground v.1.15,2013-12-31 09:53:00,
2013-12-31 04:54:00,37.1,34.4,30.18,SW,236,0.0,1.0,90,0.00,,,0.00,Wunderground v.1.15,2013-12-31 09:54:00,
2013-12-31 04:56:00,37.0,34.3,30.18,SW,236,0.0,1.0,90,0.00,,,0.00,Wunderground v.1.15,2013-12-31 09:56:00,
2013-12-31 04:57:00,37.0,34.3,30.18,SW,236,0.0,1.0,90,0.00,,,0.00,Wunderground v.1.15,2013-12-31 09:57:00,
2013-12-31 04:58:00,36.9,34.2,30.18,SW,236,0.0,1.0,90,0.00,,,0.00,Wunderground v.1.15,2013-12-31 09:58:00,
2013-12-31 04:59:00,36.9,34.2,30.18,SW,236,0.0,1.0,90,0.00,,,0.00,Wunderground v.1.15,2013-12-31 09:59:00,
2013-12-31 05:02:00,36.7,34.0,30.18,SW,236,0.0,1.0,90,0.00,,,0.00,Wunderground v.1.15,2013-12-31 10:02:00,
2013-12-31 05:03:00,36.6,33.9,30.18,SW,236,0.0,1.0,90,0.00,,,0.00,Wunderground v.1.15,2013-12-31 10:03:00,
2013-12-31 05:04:00,36.5,33.8,30.18,SW,236,0.0,1.0,90,0.00,,,0.00,Wunderground v.1.15,2013-12-31 10:04:00,
2013-12-31 05:08:00,36.2,33.5,30.18,SW,236,0.0,1.0,90,0.00,,,0.00,Wunderground v.1.15,2013-12-31 10:08:00,
2013-12-31 05:09:00,36.2,33.5,30.18,SW,236,0.0,1.0,90,0.00,,,0.00,Wunderground v.1.15,2013-12-31 10:09:00,
2013-12-31 05:10:00,36.1,33.5,30.18,SW,236,0.0,0.0,90,0.00,,,0.00,Wunderground v.1.15,2013-12-31 10:10:00,
2013-12-31 05:13:00,35.9,33.5,30.18,SW,236,1.0,1.0,91,0.00,,,0.00,Wunderground v.1.15,2013-12-31 10:13:00,
2013-12-31 05:14:00,35.9,33.5,30.19,SW,236,1.0,1.0,91,0.00,,,0.00,Wunderground v.1.15,2013-12-31 10:14:00,
2013-12-31 05:15:00,35.9,33.8,30.19,SW,236,1.0,1.0,92,0.00,,,0.00,Wunderground v.1.15,2013-12-31 10:15:00,
2013-12-31 05:18:00,36.0,33.9,30.18,SW,236,1.0,2.0,92,0.00,,,0.00,Wunderground v.1.15,2013-12-31 10:18:00,
2013-12-31 05:19:00,36.0,33.9,30.18,SW,236,0.0,2.0,92,0.00,,,0.00,Wunderground v.1.15,2013-12-31 10:19:00,
2013-12-31 05:20:00,36.0,33.9,30.18,SW,236,1.0,1.0,92,0.00,,,0.00,Wunderground v.1.15,2013-12-31 10:20:00,
2013-12-31 05:23:00,36.1,34.0,30.18,SW,236,1.0,2.0,92,0.00,,,0.00,Wunderground v.1.15,2013-12-31 10:23:00,
2013-12-31 05:24:00,36.1,34.0,30.18,SW,236,0.0,2.0,92,0.00,,,0.00,Wunderground v.1.15,2013-12-31 10:24:00,
2013-12-31 05:25:00,36.1,34.0,30.18,SW,236,1.0,2.0,92,0.00,,,0.00,Wunderground v.1.15,2013-12-31 10:25:00,
2013-12-31 05:28:00,36.1,34.0,30.19,SW,236,0.0,2.0,92,0.00,,,0.00,Wunderground v.1.15,2013-12-31 10:28:00,
2013-12-31 05:29:00,36.1,34.0,30.19,SW,236,0.0,2.0,92,0.00,,,0.00,Wunderground v.1.15,2013-12-31 10:29:00,
2013-12-31 05:30:00,36.1,34.0,30.19,SW,236,0.0,1.0,92,0.00,,,0.00,Wunderground v.1.15,2013-12-31 10:30:00,
2013-12-31 05:34:00,36.1,34.0,30.19,SW,236,0.0,1.0,92,0.00,,,0.00,Wunderground v.1.15,2013-12-31 10:34:00,
2013-12-31 05:35:00,36.1,34.0,30.19,SW,236,0.0,1.0,92,0.00,,,0.00,Wunderground v.1.15,2013-12-31 10:35:00,
2013-12-31 05:36:00,36.0,33.9,30.19,SW,236,0.0,1.0,92,0.00,,,0.00,Wunderground v.1.15,2013-12-31 10:36:00,
2013-12-31 05:39:00,35.7,33.3,30.20,SW,236,0.0,1.0,91,0.00,,,0.00,Wunderground v.1.15,2013-12-31 10:39:00,
2013-12-31 05:40:00,35.6,33.2,30.20,SW,236,0.0,0.0,91,0.00,,,0.00,Wunderground v.1.15,2013-12-31 10:40:00,
2013-12-31 05:41:00,35.6,33.2,30.20,SW,236,0.0,0.0,91,0.00,,,0.00,Wunderground v.1.15,2013-12-31 10:41:00,
2013-12-31 05:45:00,35.3,33.2,30.20,SW,236,0.0,1.0,92,0.00,,,0.00,Wunderground v.1.15,2013-12-31 10:45:00,
2013-12-31 05:46:00,35.3,33.2,30.20,SW,236,0.0,1.0,92,0.00,,,0.00,Wunderground v.1.15,2013-12-31 10:46:00,
2013-12-31 05:50:00,35.0,32.9,30.20,SW,236,1.0,1.0,92,0.00,,,0.00,Wunderground v.1.15,2013-12-31 10:50:00,
2013-12-31 05:51:00,35.0,32.9,30.20,SW,236,0.0,1.0,92,0.00,,,0.00,Wunderground v.1.15,2013-12-31 10:51:00,
2013-12-31 05:55:00,34.8,33.0,30.21,SW,236,1.0,1.0,93,0.00,,,0.00,Wunderground v.1.15,2013-12-31 10:55:00,
2013-12-31 05:56:00,34.8,33.0,30.21,SW,236,1.0,1.0,93,0.00,,,0.00,Wunderground v.1.15,2013-12-31 10:56:00,
2013-12-31 05:57:00,34.8,33.0,30.21,SW,236,0.0,1.0,93,0.00,,,0.00,Wunderground v.1.15,2013-12-31 10:57:00,
2013-12-31 06:00:00,34.7,33.2,30.21,SW,236,1.0,1.0,94,0.00,,,0.00,Wunderground v.1.15,2013-12-31 11:00:00,
2013-12-31 06:01:00,34.7,33.2,30.21,SW,236,1.0,2.0,94,0.00,,,0.00,Wunderground v.1.15,2013-12-31 11:01:00,
2013-12-31 06:02:00,34.7,33.2,30.21,SW,236,0.0,2.0,94,0.00,,,0.00,Wunderground v.1.15,2013-12-31 11:02:00,
2013-12-31 06:05:00,34.6,33.1,30.20,SW,236,0.0,2.0,94,0.00,,,0.00,Wunderground v.1.15,2013-12-31 11:05:00,
2013-12-31 06:06:00,34.5,33.0,30.21,SW,236,1.0,2.0,94,0.00,,,0.00,Wunderground v.1.15,2013-12-31 11:06:00,
2013-12-31 06:07:00,34.5,33.0,30.21,SW,236,1.0,2.0,94,0.00,,,0.00,Wunderground v.1.15,2013-12-31 11:07:00,
2013-12-31 06:10:00,34.7,33.4,30.21,WSW,238,1.0,1.0,95,0.00,,,0.00,Wunderground v.1.15,2013-12-31 11:10:00,
2013-12-31 06:11:00,34.8,33.5,30.21,WSW,238,1.0,1.0,95,0.00,,,0.00,Wunderground v.1.15,2013-12-31 11:11:00,
2013-12-31 06:12:00,34.8,33.2,30.21,WSW,238,0.0,1.0,94,0.00,,,0.00,Wunderground v.1.15,2013-12-31 11:12:00,
2013-12-31 06:15:00,35.0,33.4,30.21,WSW,238,0.0,1.0,94,0.00,,,0.00,Wunderground v.1.15,2013-12-31 11:15:00,
2013-12-31 06:16:00,35.1,33.5,30.21,WSW,238,0.0,1.0,94,0.00,,,0.00,Wunderground v.1.15,2013-12-31 11:16:00,
2013-12-31 06:17:00,35.1,33.5,30.21,WSW,238,0.0,1.0,94,0.00,,,0.00,Wunderground v.1.15,2013-12-31 11:17:00,
2013-12-31 06:20:00,35.1,33.3,30.21,WSW,238,0.0,0.0,93,0.00,,,0.00,Wunderground v.1.15,2013-12-31 11:20:00,
2013-12-31 06:21:00,35.1,33.3,30.21,WSW,238,0.0,1.0,93,0.00,,,0.00,Wunderground v.1.15,2013-12-31 11:21:00,
2013-12-31 06:22:00,35.0,33.2,30.21,WSW,237,0.0,1.0,93,0.00,,,0.00,Wunderground v.1.15,2013-12-31 11:22:00,
2013-12-31 06:23:00,35.0,33.2,30.21,WSW,238,0.0,1.0,93,0.00,,,0.00,Wunderground v.1.15,2013-12-31 11:23:00,
2013-12-31 06:26:00,34.8,32.7,30.21,WSW,238,0.0,1.0,92,0.00,,,0.00,Wunderground v.1.15,2013-12-31 11:26:00,
2013-12-31 06:27:00,34.8,32.7,30.21,WSW,238,0.0,1.0,92,0.00,,,0.00,Wunderground v.1.15,2013-12-31 11:27:00,
2013-12-31 06:28:00,34.7,32.9,30.21,WSW,238,0.0,1.0,93,0.00,,,0.00,Wunderground v.1.15,2013-12-31 11:28:00,
2013-12-31 06:31:00,34.8,32.7,30.21,SW,232,1.0,2.0,92,0.00,,,0.00,Wunderground v.1.15,2013-12-31 11:31:00,
2013-12-31 06:32:00,34.8,32.7,30.21,SW,232,1.0,2.0,92,0.00,,,0.00,Wunderground v.1.15,2013-12-31 11:32:00,
2013-12-31 06:33:00,34.9,32.8,30.22,SW,232,0.0,2.0,92,0.00,,,0.00,Wunderground v.1.15,2013-12-31 11:33:00,
2013-12-31 06:35:00,35.1,32.7,30.22,SW,232,1.0,2.0,91,0.00,,,0.00,Wunderground v.1.15,2013-12-31 11:35:00,
2013-12-31 06:36:00,35.2,32.8,30.22,SW,232,0.0,2.0,91,0.00,,,0.00,Wunderground v.1.15,2013-12-31 11:36:00,
2013-12-31 06:37:00,35.3,32.7,30.22,SW,232,0.0,2.0,90,0.00,,,0.00,Wunderground v.1.15,2013-12-31 11:37:00,
2013-12-31 06:38:00,35.3,32.7,30.22,SW,232,0.0,2.0,90,0.00,,,0.00,Wunderground v.1.15,2013-12-31 11:38:00,
2013-12-31 06:40:00,35.3,32.4,30.21,SW,232,0.0,0.0,89,0.00,,,0.00,Wunderground v.1.15,2013-12-31 11:40:00,
2013-12-31 06:41:00,35.2,32.3,30.21,SW,232,0.0,0.0,89,0.00,,,0.00,Wunderground v.1.15,2013-12-31 11:41:00,
2013-12-31 06:43:00,35.1,32.2,30.21,SW,232,0.0,0.0,89,0.00,,,0.00,Wunderground v.1.15,2013-12-31 11:43:00,
2013-12-31 06:44:00,35.1,32.2,30.21,SW,232,0.0,0.0,89,0.00,,,0.00,Wunderground v.1.15,2013-12-31 11:44:00,
2013-12-31 06:45:00,35.0,32.1,30.21,SW,232,0.0,1.0,89,0.00,,,0.00,Wunderground v.1.15,2013-12-31 11:45:00,
2013-12-31 06:47:00,34.9,32.0,30.21,WSW,255,0.0,1.0,89,0.00,,,0.00,Wunderground v.1.15,2013-12-31 11:47:00,
2013-12-31 06:48:00,34.9,32.0,30.21,WSW,255,0.0,1.0,89,0.00,,,0.00,Wunderground v.1.15,2013-12-31 11:48:00,
2013-12-31 06:49:00,34.9,31.7,30.21,WSW,255,0.0,1.0,88,0.00,,,0.00,Wunderground v.1.15,2013-12-31 11:49:00,
2013-12-31 06:51:00,34.8,31.6,30.22,WSW,255,0.0,0.0,88,0.00,,,0.00,Wunderground v.1.15,2013-12-31 11:51:00,
2013-12-31 06:52:00,34.8,31.6,30.22,WSW,255,0.0,0.0,88,0.00,,,0.00,Wunderground v.1.15,2013-12-31 11:52:00,
2013-12-31 06:53:00,34.6,31.4,30.22,WSW,255,0.0,1.0,88,0.00,,,0.00,Wunderground v.1.15,2013-12-31 11:53:00,
2013-12-31 06:54:00,34.6,31.7,30.22,WSW,255,1.0,1.0,89,0.00,,,0.00,Wunderground v.1.15,2013-12-31 11:54:00,
2013-12-31 06:56:00,34.4,31.8,30.23,WSW,255,0.0,1.0,90,0.00,,,0.00,Wunderground v.1.15,2013-12-31 11:56:00,
2013-12-31 06:57:00,34.3,31.7,30.23,WSW,255,1.0,1.0,90,0.00,,,0.00,Wunderground v.1.15,2013-12-31 11:57:00,
2013-12-31 06:59:00,34.1,31.5,30.23,WSW,255,0.0,1.0,90,0.00,,,0.00,Wunderground v.1.15,2013-12-31 11:59:00,
2013-12-31 07:00:00,34.0,31.4,30.23,WSW,255,0.0,0.0,90,0.00,,,0.00,Wunderground v.1.15,2013-12-31 12:00:00,
2013-12-31 07:02:00,33.7,31.4,30.23,WSW,255,0.0,1.0,91,0.00,,,0.00,Wunderground v.1.15,2013-12-31 12:02:00,
2013-12-31 07:04:00,33.5,31.2,30.23,WSW,255,0.0,1.0,91,0.00,,,0.00,Wunderground v.1.15,2013-12-31 12:04:00,
2013-12-31 07:05:00,33.4,31.1,30.23,WSW,243,1.0,1.0,91,0.00,,,0.00,Wunderground v.1.15,2013-12-31 12:05:00,
2013-12-31 07:07:00,33.4,31.1,30.23,WSW,252,0.0,2.0,91,0.00,,,0.00,Wunderground v.1.15,2013-12-31 12:07:00,
2013-12-31 07:10:00,33.5,31.2,30.23,WSW,248,0.0,0.0,91,0.00,,,0.00,Wunderground v.1.15,2013-12-31 12:10:00,
2013-12-31 07:12:00,33.6,30.7,30.23,SW,228,0.0,0.0,89,0.00,,,0.00,Wunderground v.1.15,2013-12-31 12:12:00,
2013-12-31 07:15:00,33.8,30.6,30.23,SW,224,1.0,1.0,88,0.00,,,0.00,Wunderground v.1.15,2013-12-31 12:15:00,
2013-12-31 07:16:00,33.9,30.7,30.23,SW,236,1.0,2.0,88,0.00,,,0.00,Wunderground v.1.15,2013-12-31 12:16:00,
2013-12-31 07:17:00,33.9,30.7,30.24,WSW,238,1.0,2.0,88,0.00,,,0.00,Wunderground v.1.15,2013-12-31 12:17:00,
2013-12-31 07:18:00,34.0,30.5,30.24,WSW,245,0.0,2.0,87,0.00,,,0.00,Wunderground v.1.15,2013-12-31 12:18:00,
2013-12-31 07:20:00,34.0,30.5,30.24,West,262,1.0,1.0,87,0.00,,,0.00,Wunderground v.1.15,2013-12-31 12:20:00,
2013-12-31 07:21:00,34.0,30.5,30.24,West,262,0.0,1.0,87,0.00,,,0.00,Wunderground v.1.15,2013-12-31 12:21:00,
2013-12-31 07:22:00,34.0,30.3,30.24,West,262,0.0,1.0,86,0.00,,,0.00,Wunderground v.1.15,2013-12-31 12:22:00,
2013-12-31 07:24:00,34.0,30.3,30.24,West,261,1.0,1.0,86,0.00,,,0.00,Wunderground v.1.15,2013-12-31 12:24:00,
2013-12-31 07:26:00,34.0,30.0,30.24,West,259,0.0,1.0,85,0.00,,,0.00,Wunderground v.1.15,2013-12-31 12:26:00,
2013-12-31 07:27:00,34.1,30.1,30.25,West,259,0.0,1.0,85,0.00,,,0.00,Wunderground v.1.15,2013-12-31 12:27:00,
2013-12-31 07:30:00,34.1,29.8,30.24,WSW,258,0.0,0.0,84,0.00,,,0.00,Wunderground v.1.15,2013-12-31 12:30:00,
2013-12-31 07:31:00,34.2,29.9,30.24,West,259,0.0,0.0,84,0.00,,,0.00,Wunderground v.1.15,2013-12-31 12:31:00,
2013-12-31 07:32:00,34.2,29.6,30.24,West,259,0.0,1.0,83,0.00,,,0.00,Wunderground v.1.15,2013-12-31 12:32:00,
2013-12-31 07:34:00,34.3,29.7,30.24,West,259,0.0,1.0,83,0.00,,,0.00,Wunderground v.1.15,2013-12-31 12:34:00,
2013-12-31 07:35:00,34.3,30.0,30.24,West,259,0.0,1.0,84,0.00,,,0.00,Wunderground v.1.15,2013-12-31 12:35:00,
2013-12-31 07:36:00,34.3,30.3,30.24,West,259,1.0,1.0,85,0.00,,,0.00,Wunderground v.1.15,2013-12-31 12:36:00,
2013-12-31 07:37:00,34.2,30.2,30.24,West,259,0.0,1.0,85,0.00,,,0.00,Wunderground v.1.15,2013-12-31 12:37:00,
2013-12-31 07:38:00,34.1,29.8,30.24,West,259,1.0,1.0,84,0.00,,,0.00,Wunderground v.1.15,2013-12-31 12:38:00,
2013-12-31 07:39:00,34.1,29.8,30.24,WSW,248,1.0,1.0,84,0.00,,,0.00,Wunderground v.1.15,2013-12-31 12:39:00,
2013-12-31 07:40:00,34.1,29.8,30.24,SW,236,0.0,1.0,84,0.00,,,0.00,Wunderground v.1.15,2013-12-31 12:40:00,
2013-12-31 07:41:00,34.1,29.5,30.24,SW,236,0.0,1.0,83,0.00,,,0.00,Wunderground v.1.15,2013-12-31 12:41:00,
2013-12-31 07:42:00,34.1,29.5,30.24,SW,236,0.0,1.0,83,0.00,,,0.00,Wunderground v.1.15,2013-12-31 12:42:00,
2013-12-31 07:44:00,34.2,29.0,30.24,SW,236,0.0,1.0,81,0.00,,,0.00,Wunderground v.1.15,2013-12-31 12:44:00,
2013-12-31 07:45:00,34.3,29.4,30.24,SW,236,0.0,1.0,82,0.00,,,0.00,Wunderground v.1.15,2013-12-31 12:45:00,
2013-12-31 07:46:00,34.3,29.1,30.24,SW,236,0.0,1.0,81,0.00,,,0.00,Wunderground v.1.15,2013-12-31 12:46:00,
2013-12-31 07:47:00,34.4,28.9,30.24,SW,236,0.0,1.0,80,0.00,,,0.00,Wunderground v.1.15,2013-12-31 12:47:00,
2013-12-31 07:49:00,34.5,28.7,30.24,SW,236,0.0,1.0,79,0.00,,,0.00,Wunderground v.1.15,2013-12-31 12:49:00,
2013-12-31 07:51:00,34.7,28.9,30.25,SW,236,0.0,0.0,79,0.00,,,0.00,Wunderground v.1.15,2013-12-31 12:51:00,
2013-12-31 07:52:00,34.7,28.9,30.25,SW,236,0.0,0.0,79,0.00,,,0.00,Wunderground v.1.15,2013-12-31 12:52:00,
2013-12-31 07:54:00,34.8,29.0,30.25,SW,236,0.0,0.0,79,0.00,,,0.00,Wunderground v.1.15,2013-12-31 12:54:00,
2013-12-31 07:56:00,34.8,28.6,30.25,SW,236,0.0,0.0,78,0.00,,,0.00,Wunderground v.1.15,2013-12-31 12:56:00,
2013-12-31 07:57:00,34.8,29.0,30.24,SW,236,0.0,0.0,79,0.00,,,0.00,Wunderground v.1.15,2013-12-31 12:57:00,
2013-12-31 07:59:00,34.7,28.9,30.25,SW,234,0.0,0.0,79,0.00,,,0.00,Wunderground v.1.15,2013-12-31 12:59:00,
2013-12-31 08:00:00,34.7,28.5,30.25,SW,235,0.0,0.0,78,0.00,,,0.00,Wunderground v.1.15,2013-12-31 13:00:00,
2013-12-31 08:02:00,34.6,28.8,30.25,SW,234,0.0,0.0,79,0.00,,,0.00,Wunderground v.1.15,2013-12-31 13:02:00,
2013-12-31 08:03:00,34.6,28.8,30.25,SW,234,0.0,0.0,79,0.00,,,0.00,Wunderground v.1.15,2013-12-31 13:03:00,
2013-12-31 08:05:00,34.5,28.7,30.25,SW,234,0.0,0.0,79,0.00,,,0.00,Wunderground v.1.15,2013-12-31 13:05:00,
2013-12-31 08:07:00,34.5,28.3,30.25,SW,235,0.0,0.0,78,0.00,,,0.00,Wunderground v.1.15,2013-12-31 13:07:00,
2013-12-31 08:08:00,34.6,28.4,30.25,SW,235,0.0,0.0,78,0.00,,,0.00,Wunderground v.1.15,2013-12-31 13:08:00,
2013-12-31 08:10:00,34.7,28.5,30.25,SW,235,0.0,0.0,78,0.00,,,0.00,Wunderground v.1.15,2013-12-31 13:10:00,
2013-12-31 08:12:00,34.8,28.6,30.25,SW,235,0.0,0.0,78,0.00,,,0.00,Wunderground v.1.15,2013-12-31 13:12:00,
2013-12-31 08:13:00,34.8,28.3,30.25,SW,234,0.0,0.0,77,0.00,,,0.00,Wunderground v.1.15,2013-12-31 13:13:00,
2013-12-31 08:14:00,34.8,28.3,30.25,SW,235,0.0,0.0,77,0.00,,,0.00,Wunderground v.1.15,2013-12-31 13:14:00,
2013-12-31 08:15:00,34.8,28.6,30.26,SW,235,0.0,0.0,78,0.00,,,0.00,Wunderground v.1.15,2013-12-31 13:15:00,
2013-12-31 08:17:00,34.7,28.5,30.26,SW,234,0.0,0.0,78,0.00,,,0.00,Wunderground v.1.15,2013-12-31 13:17:00,
2013-12-31 08:18:00,34.8,28.3,30.26,SW,235,0.0,0.0,77,0.00,,,0.00,Wunderground v.1.15,2013-12-31 13:18:00,
2013-12-31 08:19:00,34.8,28.3,30.26,SW,226,1.0,1.0,77,0.00,,,0.00,Wunderground v.1.15,2013-12-31 13:19:00,
2013-12-31 08:20:00,34.8,28.3,30.26,WSW,243,1.0,1.0,77,0.00,,,0.00,Wunderground v.1.15,2013-12-31 13:20:00,
2013-12-31 08:22:00,34.9,28.4,30.25,WSW,243,0.0,1.0,77,0.00,,,0.00,Wunderground v.1.15,2013-12-31 13:22:00,
2013-12-31 08:23:00,34.9,28.4,30.25,WSW,243,0.0,1.0,77,0.00,,,0.00,Wunderground v.1.15,2013-12-31 13:23:00,
2013-12-31 08:24:00,35.0,28.5,30.25,WSW,243,1.0,1.0,77,0.00,,,0.00,Wunderground v.1.15,2013-12-31 13:24:00,
2013-12-31 08:26:00,35.1,28.3,30.26,WSW,243,0.0,1.0,76,0.00,,,0.00,Wunderground v.1.15,2013-12-31 13:26:00,
2013-12-31 08:27:00,35.2,28.4,30.26,WSW,243,1.0,1.0,76,0.00,,,0.00,Wunderground v.1.15,2013-12-31 13:27:00,
2013-12-31 08:28:00,35.2,28.4,30.26,WSW,243,0.0,1.0,76,0.00,,,0.00,Wunderground v.1.15,2013-12-31 13:28:00,
2013-12-31 08:29:00,35.2,28.4,30.26,WSW,243,0.0,1.0,76,0.00,,,0.00,Wunderground v.1.15,2013-12-31 13:29:00,
2013-12-31 08:31:00,35.4,28.3,30.26,WSW,243,0.0,1.0,75,0.00,,,0.00,Wunderground v.1.15,2013-12-31 13:31:00,
2013-12-31 08:32:00,35.4,28.6,30.26,WSW,243,1.0,1.0,76,0.00,,,0.00,Wunderground v.1.15,2013-12-31 13:32:00,
2013-12-31 08:33:00,35.5,28.4,30.26,WSW,243,0.0,1.0,75,0.00,,,0.00,Wunderground v.1.15,2013-12-31 13:33:00,
2013-12-31 08:34:00,35.6,28.5,30.26,WSW,243,1.0,1.0,75,0.00,,,0.00,Wunderground v.1.15,2013-12-31 13:34:00,
2013-12-31 08:36:00,35.6,28.5,30.26,SW,232,0.0,1.0,75,0.00,,,0.00,Wunderground v.1.15,2013-12-31 13:36:00,
2013-12-31 08:37:00,35.7,28.6,30.26,SW,231,1.0,1.0,75,0.00,,,0.00,Wunderground v.1.15,2013-12-31 13:37:00,
2013-12-31 08:38:00,35.7,28.9,30.26,SW,232,1.0,1.0,76,0.00,,,0.00,Wunderground v.1.15,2013-12-31 13:38:00,
2013-12-31 08:40:00,35.7,28.6,30.26,SW,236,1.0,1.0,75,0.00,,,0.00,Wunderground v.1.15,2013-12-31 13:40:00,
2013-12-31 08:41:00,35.8,28.6,30.26,SW,236,1.0,2.0,75,0.00,,,0.00,Wunderground v.1.15,2013-12-31 13:41:00,
2013-12-31 08:43:00,35.8,28.6,30.27,SW,235,1.0,2.0,75,0.00,,,0.00,Wunderground v.1.15,2013-12-31 13:43:00,
2013-12-31 08:45:00,35.9,28.7,30.27,SW,226,1.0,2.0,75,0.00,,,0.00,Wunderground v.1.15,2013-12-31 13:45:00,
2013-12-31 08:46:00,36.0,28.5,30.27,WSW,248,1.0,2.0,74,0.00,,,0.00,Wunderground v.1.15,2013-12-31 13:46:00,
2013-12-31 08:48:00,36.1,29.3,30.27,WSW,252,1.0,2.0,76,0.00,,,0.00,Wunderground v.1.15,2013-12-31 13:48:00,
2013-12-31 08:49:00,36.1,28.9,30.27,WSW,238,1.0,2.0,75,0.00,,,0.00,Wunderground v.1.15,2013-12-31 13:49:00,
2013-12-31 08:50:00,36.2,29.0,30.27,SW,232,1.0,1.0,75,0.00,,,0.00,Wunderground v.1.15,2013-12-31 13:50:00,
2013-12-31 08:51:00,36.2,29.0,30.27,SW,233,1.0,1.0,75,0.00,,,0.00,Wunderground v.1.15,2013-12-31 13:51:00,
2013-12-31 08:53:00,36.3,28.8,30.27,WSW,250,0.0,2.0,74,0.00,,,0.00,Wunderground v.1.15,2013-12-31 13:53:00,
2013-12-31 08:54:00,36.4,28.9,30.27,WSW,250,1.0,2.0,74,0.00,,,0.00,Wunderground v.1.15,2013-12-31 13:54:00,
2013-12-31 08:55:00,36.4,29.2,30.27,WSW,250,0.0,2.0,75,0.00,,,0.00,Wunderground v.1.15,2013-12-31 13:55:00,
2013-12-31 08:56:00,36.5,29.3,30.27,WSW,240,1.0,2.0,75,0.00,,,0.00,Wunderground v.1.15,2013-12-31 13:56:00,
2013-12-31 08:59:00,36.6,29.4,30.27,WSW,241,1.0,2.0,75,0.00,,,0.00,Wunderground v.1.15,2013-12-31 13:59:00,
2013-12-31 09:00:00,36.7,29.2,30.27,WSW,257,1.0,1.0,74,0.00,,,0.00,Wunderground v.1.15,2013-12-31 14:00:00,
2013-12-31 09:01:00,36.7,29.2,30.27,West,259,0.0,1.0,74,0.00,,,0.00,Wunderground v.1.15,2013-12-31 14:01:00,
2013-12-31 09:04:00,36.9,29.7,30.28,WSW,257,0.0,2.0,75,0.00,,,0.00,Wunderground v.1.15,2013-12-31 14:04:00,
2013-12-31 09:05:00,36.9,30.0,30.28,WNW,294,1.0,2.0,76,0.00,,,0.00,Wunderground v.1.15,2013-12-31 14:05:00,
2013-12-31 09:06:00,36.9,29.7,30.28,WNW,295,0.0,2.0,75,0.00,,,0.00,Wunderground v.1.15,2013-12-31 14:06:00,
2013-12-31 09:07:00,36.9,30.4,30.28,North,8,2.0,2.0,77,0.00,,,0.00,Wunderground v.1.15,2013-12-31 14:07:00,
2013-12-31 09:09:00,37.0,31.1,30.28,North,9,0.0,2.0,79,0.00,,,0.00,Wunderground v.1.15,2013-12-31 14:09:00,
2013-12-31 09:10:00,37.0,31.4,30.28,North,8,0.0,0.0,80,0.00,,,0.00,Wunderground v.1.15,2013-12-31 14:10:00,
2013-12-31 09:11:00,37.0,31.7,30.28,North,8,0.0,0.0,81,0.00,,,0.00,Wunderground v.1.15,2013-12-31 14:11:00,
2013-12-31 09:12:00,37.0,31.7,30.28,North,9,0.0,0.0,81,0.00,,,0.00,Wunderground v.1.15,2013-12-31 14:12:00,
2013-12-31 09:14:00,37.0,31.7,30.28,North,9,0.0,0.0,81,0.00,,,0.00,Wunderground v.1.15,2013-12-31 14:14:00,
2013-12-31 09:15:00,37.0,31.7,30.28,North,9,1.0,1.0,81,0.00,,,0.00,Wunderground v.1.15,2013-12-31 14:15:00,
2013-12-31 09:16:00,37.0,31.4,30.28,West,281,0.0,2.0,80,0.00,,,0.00,Wunderground v.1.15,2013-12-31 14:16:00,
2013-12-31 09:17:00,37.0,31.1,30.29,West,281,0.0,2.0,79,0.00,,,0.00,Wunderground v.1.15,2013-12-31 14:17:00,
2013-12-31 09:19:00,37.1,30.2,30.28,WNW,287,0.0,3.0,76,0.00,,,0.00,Wunderground v.1.15,2013-12-31 14:19:00,
2013-12-31 09:20:00,37.1,30.2,30.28,WNW,287,0.0,0.0,76,0.00,,,0.00,Wunderground v.1.15,2013-12-31 14:20:00,
2013-12-31 09:21:00,37.2,30.3,30.29,WNW,288,0.0,1.0,76,0.00,,,0.00,Wunderground v.1.15,2013-12-31 14:21:00,
2013-12-31 09:22:00,37.2,30.3,30.29,WNW,287,1.0,1.0,76,0.00,,,0.00,Wunderground v.1.15,2013-12-31 14:22:00,
2013-12-31 09:25:00,37.4,30.2,30.29,WNW,287,0.0,1.0,75,0.00,,,0.00,Wunderground v.1.15,2013-12-31 14:25:00,
2013-12-31 09:27:00,37.5,30.6,30.29,WNW,287,0.0,1.0,76,0.00,,,0.00,Wunderground v.1.15,2013-12-31 14:27:00,
2013-12-31 09:30:00,37.6,30.7,30.29,WNW,285,0.0,0.0,76,0.00,,,0.00,Wunderground v.1.15,2013-12-31 14:30:00,
2013-12-31 09:31:00,37.7,31.1,30.29,WNW,285,0.0,1.0,77,0.00,,,0.00,Wunderground v.1.15,2013-12-31 14:31:00,
2013-12-31 09:32:00,37.8,30.9,30.29,WNW,285,0.0,1.0,76,0.00,,,0.00,Wunderground v.1.15,2013-12-31 14:32:00,
2013-12-31 09:35:00,38.1,31.5,30.29,West,259,0.0,1.0,77,0.00,,,0.00,Wunderground v.1.15,2013-12-31 14:35:00,
2013-12-31 09:36:00,38.1,31.5,30.29,West,259,0.0,1.0,77,0.00,,,0.00,Wunderground v.1.15,2013-12-31 14:36:00,
2013-12-31 09:37:00,38.2,31.9,30.30,SW,235,1.0,1.0,78,0.00,,,0.00,Wunderground v.1.15,2013-12-31 14:37:00,
2013-12-31 09:40:00,38.5,31.9,30.30,West,269,1.0,1.0,77,0.00,,,0.00,Wunderground v.1.15,2013-12-31 14:40:00,
2013-12-31 09:41:00,38.6,32.0,30.30,West,269,0.0,1.0,77,0.00,,,0.00,Wunderground v.1.15,2013-12-31 14:41:00,
2013-12-31 09:42:00,38.7,31.5,30.30,West,268,0.0,1.0,75,0.00,,,0.00,Wunderground v.1.15,2013-12-31 14:42:00,
2013-12-31 09:43:00,38.7,31.1,30.30,West,269,0.0,1.0,74,0.00,,,0.00,Wunderground v.1.15,2013-12-31 14:43:00,
2013-12-31 09:45:00,39.0,31.1,30.30,West,269,0.0,1.0,73,0.00,,,0.00,Wunderground v.1.15,2013-12-31 14:45:00,
2013-12-31 09:46:00,39.1,31.2,30.30,West,269,0.0,1.0,73,0.00,,,0.00,Wunderground v.1.15,2013-12-31 14:46:00,
2013-12-31 09:47:00,39.3,31.0,30.30,West,273,1.0,1.0,72,0.00,,,0.00,Wunderground v.1.15,2013-12-31 14:47:00,
2013-12-31 09:48:00,39.4,30.8,30.30,West,274,1.0,1.0,71,0.00,,,0.00,Wunderground v.1.15,2013-12-31 14:48:00,
2013-12-31 09:50:00,39.7,30.4,30.30,WNW,289,1.0,1.0,69,0.00,,,0.00,Wunderground v.1.15,2013-12-31 14:50:00,
2013-12-31 09:51:00,39.8,29.7,30.30,WNW,302,1.0,3.0,67,0.00,,,0.00,Wunderground v.1.15,2013-12-31 14:51:00,
2013-12-31 09:52:00,39.9,29.5,30.30,West,269,2.0,4.0,66,0.00,,,0.00,Wunderground v.1.15,2013-12-31 14:52:00,
2013-12-31 09:53:00,40.1,30.0,30.30,WSW,257,1.0,4.0,67,0.00,,,0.00,Wunderground v.1.15,2013-12-31 14:53:00,
2013-12-31 09:54:00,40.1,30.0,30.30,WNW,292,2.0,4.0,67,0.00,,,0.00,Wunderground v.1.15,2013-12-31 14:54:00,
2013-12-31 09:56:00,40.4,29.9,30.30,SW,235,0.0,4.0,66,0.00,,,0.00,Wunderground v.1.15,2013-12-31 14:56:00,
2013-12-31 09:57:00,40.5,30.0,30.30,WSW,242,1.0,4.0,66,0.00,,,0.00,Wunderground v.1.15,2013-12-31 14:57:00,
2013-12-31 09:58:00,40.6,30.5,30.30,West,271,1.0,4.0,67,0.00,,,0.00,Wunderground v.1.15,2013-12-31 14:58:00,
2013-12-31 09:59:00,40.7,30.2,30.30,WNW,290,2.0,4.0,66,0.00,,,0.00,Wunderground v.1.15,2013-12-31 14:59:00,
2013-12-31 10:01:00,41.0,29.4,30.31,NW,314,3.0,5.0,63,0.00,,,0.00,Wunderground v.1.15,2013-12-31 15:01:00,
2013-12-31 10:02:00,41.2,29.2,30.30,NW,316,1.0,5.0,62,0.00,,,0.00,Wunderground v.1.15,2013-12-31 15:02:00,
2013-12-31 10:03:00,41.2,29.2,30.30,SW,235,2.0,5.0,62,0.00,,,0.00,Wunderground v.1.15,2013-12-31 15:03:00,
2013-12-31 10:04:00,41.4,28.9,30.30,SW,226,1.0,5.0,61,0.00,,,0.00,Wunderground v.1.15,2013-12-31 15:04:00,
2013-12-31 10:06:00,41.6,28.7,30.30,West,281,2.0,5.0,60,0.00,,,0.00,Wunderground v.1.15,2013-12-31 15:06:00,
2013-12-31 10:07:00,41.8,28.9,30.31,West,267,0.0,5.0,60,0.00,,,0.00,Wunderground v.1.15,2013-12-31 15:07:00,
2013-12-31 10:08:00,41.8,28.5,30.31,West,267,0.0,5.0,59,0.00,,,0.00,Wunderground v.1.15,2013-12-31 15:08:00,
2013-12-31 10:09:00,41.9,29.0,30.31,WSW,249,1.0,5.0,60,0.00,,,0.00,Wunderground v.1.15,2013-12-31 15:09:00,
2013-12-31 10:11:00,42.2,28.9,30.31,SW,217,1.0,2.0,59,0.00,,,0.00,Wunderground v.1.15,2013-12-31 15:11:00,
2013-12-31 10:13:00,42.4,27.8,30.32,WSW,253,0.0,3.0,56,0.00,,,0.00,Wunderground v.1.15,2013-12-31 15:13:00,
2013-12-31 10:14:00,42.4,27.8,30.32,WSW,255,3.0,3.0,56,0.00,,,0.00,Wunderground v.1.15,2013-12-31 15:14:00,
2013-12-31 10:15:00,42.5,28.8,30.32,WSW,252,4.0,4.0,58,0.00,,,0.00,Wunderground v.1.15,2013-12-31 15:15:00,
2013-12-31 10:17:00,42.7,28.1,30.32,SW,225,4.0,4.0,56,0.00,,,0.00,Wunderground v.1.15,2013-12-31 15:17:00,
2013-12-31 10:18:00,42.7,27.6,30.32,West,281,1.0,4.0,55,0.00,,,0.00,Wunderground v.1.15,2013-12-31 15:18:00,
2013-12-31 10:19:00,42.7,27.6,30.32,West,281,1.0,4.0,55,0.00,,,0.00,Wunderground v.1.15,2013-12-31 15:19:00,
2013-12-31 10:20:00,42.8,27.7,30.32,WSW,252,2.0,2.0,55,0.00,,,0.00,Wunderground v.1.15,2013-12-31 15:20:00,
2013-12-31 10:23:00,42.9,27.8,30.32,SW,215,1.0,9.0,55,0.00,,,0.00,Wunderground v.1.15,2013-12-31 15:23:00,
2013-12-31 10:24:00,43.0,28.4,30.32,North,8,2.0,9.0,56,0.00,,,0.00,Wunderground v.1.15,2013-12-31 15:24:00,
2013-12-31 10:25:00,43.1,28.5,30.32,WSW,239,4.0,9.0,56,0.00,,,0.00,Wunderground v.1.15,2013-12-31 15:25:00,
2013-12-31 10:29:00,43.3,27.8,30.32,West,277,2.0,9.0,54,0.00,,,0.00,Wunderground v.1.15,2013-12-31 15:29:00,
2013-12-31 10:30:00,43.3,27.3,30.32,WNW,287,2.0,3.0,53,0.00,,,0.00,Wunderground v.1.15,2013-12-31 15:30:00,
2013-12-31 10:34:00,43.6,26.6,30.33,WNW,290,1.0,5.0,51,0.00,,,0.00,Wunderground v.1.15,2013-12-31 15:34:00,
2013-12-31 10:35:00,43.6,27.1,30.32,West,264,3.0,8.0,52,0.00,,,0.00,Wunderground v.1.15,2013-12-31 15:35:00,
2013-12-31 10:39:00,43.7,26.7,30.32,WSW,255,3.0,8.0,51,0.00,,,0.00,Wunderground v.1.15,2013-12-31 15:39:00,
2013-12-31 10:40:00,43.7,26.7,30.32,WNW,293,2.0,3.0,51,0.00,,,0.00,Wunderground v.1.15,2013-12-31 15:40:00,
2013-12-31 10:41:00,43.7,26.3,30.32,WSW,251,5.0,5.0,50,0.00,,,0.00,Wunderground v.1.15,2013-12-31 15:41:00,
2013-12-31 10:44:00,43.8,27.3,30.32,WSW,245,1.0,5.0,52,0.00,,,0.00,Wunderground v.1.15,2013-12-31 15:44:00,
2013-12-31 10:45:00,43.8,27.3,30.32,WSW,245,0.0,5.0,52,0.00,,,0.00,Wunderground v.1.15,2013-12-31 15:45:00,
2013-12-31 10:46:00,43.9,26.9,30.31,West,281,1.0,5.0,51,0.00,,,0.00,Wunderground v.1.15,2013-12-31 15:46:00,
2013-12-31 10:50:00,44.3,26.3,30.31,SW,232,2.0,2.0,49,0.00,,,0.00,Wunderground v.1.15,2013-12-31 15:50:00,
2013-12-31 10:51:00,44.3,26.8,30.31,West,271,1.0,2.0,50,0.00,,,0.00,Wunderground v.1.15,2013-12-31 15:51:00,
2013-12-31 10:55:00,44.5,27.0,30.31,SW,226,0.0,3.0,50,0.00,,,0.00,Wunderground v.1.15,2013-12-31 15:55:00,
2013-12-31 10:56:00,44.6,26.6,30.31,WNW,293,1.0,3.0,49,0.00,,,0.00,Wunderground v.1.15,2013-12-31 15:56:00,
2013-12-31 10:57:00,44.6,26.1,30.31,SW,226,1.0,3.0,48,0.00,,,0.00,Wunderground v.1.15,2013-12-31 15:57:00,
2013-12-31 11:00:00,44.7,26.2,30.30,West,278,0.0,2.0,48,0.00,,,0.00,Wunderground v.1.15,2013-12-31 16:00:00,
2013-12-31 11:01:00,44.7,26.2,30.30,WNW,297,1.0,3.0,48,0.00,,,0.00,Wunderground v.1.15,2013-12-31 16:01:00,
2013-12-31 11:02:00,44.7,26.7,30.30,SW,235,1.0,3.0,49,0.00,,,0.00,Wunderground v.1.15,2013-12-31 16:02:00,
2013-12-31 11:05:00,44.9,26.4,30.30,SW,225,4.0,6.0,48,0.00,,,0.00,Wunderground v.1.15,2013-12-31 16:05:00,
2013-12-31 11:06:00,44.9,25.9,30.30,WNW,285,2.0,7.0,47,0.00,,,0.00,Wunderground v.1.15,2013-12-31 16:06:00,
2013-12-31 11:07:00,45.0,27.0,30.30,WNW,285,0.0,7.0,49,0.00,,,0.00,Wunderground v.1.15,2013-12-31 16:07:00,
2013-12-31 11:08:00,45.0,27.5,30.30,WSW,257,2.0,7.0,50,0.00,,,0.00,Wunderground v.1.15,2013-12-31 16:08:00,
2013-12-31 11:10:00,45.1,26.1,30.30,WSW,244,3.0,4.0,47,0.00,,,0.00,Wunderground v.1.15,2013-12-31 16:10:00,
2013-12-31 11:11:00,45.1,26.6,30.30,WSW,245,2.0,4.0,48,0.00,,,0.00,Wunderground v.1.15,2013-12-31 16:11:00,
2013-12-31 11:12:00,45.0,26.0,30.30,SW,225,5.0,5.0,47,0.00,,,0.00,Wunderground v.1.15,2013-12-31 16:12:00,
2013-12-31 11:13:00,45.1,26.1,30.30,WSW,246,2.0,5.0,47,0.00,,,0.00,Wunderground v.1.15,2013-12-31 16:13:00,
2013-12-31 11:16:00,45.0,26.0,30.30,WNW,295,2.0,5.0,47,0.00,,,0.00,Wunderground v.1.15,2013-12-31 16:16:00,
2013-12-31 11:17:00,45.0,26.0,30.30,WNW,283,4.0,5.0,47,0.00,,,0.00,Wunderground v.1.15,2013-12-31 16:17:00,
2013-12-31 11:19:00,45.0,26.0,30.30,WSW,245,2.0,5.0,47,0.00,,,0.00,Wunderground v.1.15,2013-12-31 16:19:00,
2013-12-31 11:21:00,44.9,25.9,30.30,WNW,283,2.0,3.0,47,0.00,,,0.00,Wunderground v.1.15,2013-12-31 16:21:00,
2013-12-31 11:22:00,44.9,25.9,30.30,West,274,1.0,3.0,47,0.00,,,0.00,Wunderground v.1.15,2013-12-31 16:22:00,
2013-12-31 11:23:00,44.9,25.9,30.30,West,266,0.0,3.0,47,0.00,,,0.00,Wunderground v.1.15,2013-12-31 16:23:00,
2013-12-31 11:25:00,45.0,26.0,30.31,WNW,284,1.0,3.0,47,0.00,,,0.00,Wunderground v.1.15,2013-12-31 16:25:00,
2013-12-31 11:26:00,44.9,25.9,30.30,NNE,13,3.0,6.0,47,0.00,,,0.00,Wunderground v.1.15,2013-12-31 16:26:00,
2013-12-31 11:27:00,45.0,25.4,30.30,WSW,257,7.0,8.0,46,0.00,,,0.00,Wunderground v.1.15,2013-12-31 16:27:00,
2013-12-31 11:28:00,44.9,25.3,30.30,WNW,287,3.0,8.0,46,0.00,,,0.00,Wunderground v.1.15,2013-12-31 16:28:00,
2013-12-31 11:29:00,45.0,25.4,30.30,SSW,212,1.0,8.0,46,0.00,,,0.00,Wunderground v.1.15,2013-12-31 16:29:00,
2013-12-31 11:30:00,45.0,26.0,30.31,WNW,299,2.0,3.0,47,0.00,,,0.00,Wunderground v.1.15,2013-12-31 16:30:00,
2013-12-31 11:31:00,45.0,26.0,30.31,SW,235,1.0,4.0,47,0.00,,,0.00,Wunderground v.1.15,2013-12-31 16:31:00,
2013-12-31 11:32:00,45.0,26.0,30.31,West,270,1.0,4.0,47,0.00,,,0.00,Wunderground v.1.15,2013-12-31 16:32:00,
2013-12-31 11:33:00,45.0,25.4,30.31,SW,221,2.0,5.0,46,0.00,,,0.00,Wunderground v.1.15,2013-12-31 16:33:00,
2013-12-31 11:35:00,45.1,26.1,30.31,West,278,2.0,5.0,47,0.00,,,0.00,Wunderground v.1.15,2013-12-31 16:35:00,
2013-12-31 11:37:00,45.1,25.5,30.31,WSW,250,5.0,6.0,46,0.00,,,0.00,Wunderground v.1.15,2013-12-31 16:37:00,
2013-12-31 11:38:00,45.1,25.5,30.31,WNW,288,5.0,6.0,46,0.00,,,0.00,Wunderground v.1.15,2013-12-31 16:38:00,
2013-12-31 11:39:00,45.0,25.4,30.31,West,276,2.0,6.0,46,0.00,,,0.00,Wunderground v.1.15,2013-12-31 16:39:00,
2013-12-31 11:40:00,45.1,25.5,30.31,WNW,288,0.0,2.0,46,0.00,,,0.00,Wunderground v.1.15,2013-12-31 16:40:00,
2013-12-31 11:41:00,45.1,25.5,30.31,WSW,250,2.0,2.0,46,0.00,,,0.00,Wunderground v.1.15,2013-12-31 16:41:00,
2013-12-31 11:42:00,45.1,26.6,30.30,WNW,290,3.0,3.0,48,0.00,,,0.00,Wunderground v.1.15,2013-12-31 16:42:00,
2013-12-31 11:43:00,45.2,25.6,30.30,West,262,1.0,3.0,46,0.00,,,0.00,Wunderground v.1.15,2013-12-31 16:43:00,
2013-12-31 11:44:00,45.2,26.1,30.30,WSW,238,1.0,3.0,47,0.00,,,0.00,Wunderground v.1.15,2013-12-31 16:44:00,
2013-12-31 11:45:00,45.2,25.1,30.30,WSW,245,0.0,3.0,45,0.00,,,0.00,Wunderground v.1.15,2013-12-31 16:45:00,
2013-12-31 11:46:00,45.3,25.2,30.30,NE,34,2.0,3.0,45,0.00,,,0.00,Wunderground v.1.15,2013-12-31 16:46:00,
2013-12-31 11:47:00,45.3,26.2,30.30,WSW,246,2.0,3.0,47,0.00,,,0.00,Wunderground v.1.15,2013-12-31 16:47:00,
2013-12-31 11:49:00,45.3,24.6,30.30,WSW,237,2.0,5.0,44,0.00,,,0.00,Wunderground v.1.15,2013-12-31 16:49:00,
2013-12-31 11:50:00,45.3,24.6,30.30,WSW,255,0.0,2.0,44,0.00,,,0.00,Wunderground v.1.15,2013-12-31 16:50:00,
2013-12-31 11:51:00,45.3,24.6,30.30,WSW,250,9.0,9.0,44,0.00,,,0.00,Wunderground v.1.15,2013-12-31 16:51:00,
2013-12-31 11:52:00,45.3,25.2,30.30,WNW,285,3.0,9.0,45,0.00,,,0.00,Wunderground v.1.15,2013-12-31 16:52:00,
2013-12-31 11:53:00,45.3,24.6,30.30,WNW,289,2.0,9.0,44,0.00,,,0.00,Wunderground v.1.15,2013-12-31 16:53:00,
2013-12-31 11:54:00,45.3,24.6,30.30,West,267,3.0,9.0,44,0.00,,,0.00,Wunderground v.1.15,2013-12-31 16:54:00,
2013-12-31 11:55:00,45.3,24.6,30.30,West,266,0.0,9.0,44,0.00,,,0.00,Wunderground v.1.15,2013-12-31 16:55:00,
2013-12-31 11:56:00,45.4,24.7,30.30,SW,232,3.0,9.0,44,0.00,,,0.00,Wunderground v.1.15,2013-12-31 16:56:00,
2013-12-31 11:57:00,45.4,24.7,30.30,SW,226,2.0,9.0,44,0.00,,,0.00,Wunderground v.1.15,2013-12-31 16:57:00,
2013-12-31 11:58:00,45.5,25.4,30.30,West,262,1.0,9.0,45,0.00,,,0.00,Wunderground v.1.15,2013-12-31 16:58:00,
2013-12-31 12:00:00,45.6,25.5,30.30,WSW,239,2.0,2.0,45,0.00,,,0.00,Wunderground v.1.15,2013-12-31 17:00:00,
2013-12-31 12:01:00,45.7,25.5,30.30,NW,322,3.0,3.0,45,0.00,,,0.00,Wunderground v.1.15,2013-12-31 17:01:00,
2013-12-31 12:02:00,45.7,25.5,30.30,NW,310,2.0,5.0,45,0.00,,,0.00,Wunderground v.1.15,2013-12-31 17:02:00,
2013-12-31 12:04:00,45.8,24.5,30.30,NW,308,1.0,7.0,43,0.00,,,0.00,Wunderground v.1.15,2013-12-31 17:04:00,
2013-12-31 12:05:00,45.8,24.5,30.29,WSW,245,4.0,7.0,43,0.00,,,0.00,Wunderground v.1.15,2013-12-31 17:05:00,
2013-12-31 12:06:00,45.8,23.4,30.29,WNW,293,3.0,7.0,41,0.00,,,0.00,Wunderground v.1.15,2013-12-31 17:06:00,
2013-12-31 12:07:00,45.8,23.4,30.29,West,272,3.0,7.0,41,0.00,,,0.00,Wunderground v.1.15,2013-12-31 17:07:00,
2013-12-31 12:09:00,45.8,23.4,30.29,WSW,237,3.0,7.0,41,0.00,,,0.00,Wunderground v.1.15,2013-12-31 17:09:00,
2013-12-31 12:10:00,45.9,23.5,30.29,WNW,287,4.0,7.0,41,0.00,,,0.00,Wunderground v.1.15,2013-12-31 17:10:00,
2013-12-31 12:11:00,45.9,22.9,30.29,SW,236,4.0,7.0,40,0.00,,,0.00,Wunderground v.1.15,2013-12-31 17:11:00,
2013-12-31 12:12:00,45.9,22.9,30.29,WSW,238,7.0,9.0,40,0.00,,,0.00,Wunderground v.1.15,2013-12-31 17:12:00,
2013-12-31 12:14:00,45.9,22.9,30.29,WSW,253,6.0,10.0,40,0.00,,,0.00,Wunderground v.1.15,2013-12-31 17:14:00,
2013-12-31 12:15:00,45.9,22.3,30.29,WSW,257,2.0,10.0,39,0.00,,,0.00,Wunderground v.1.15,2013-12-31 17:15:00,
2013-12-31 12:16:00,45.9,22.3,30.29,SW,214,8.0,10.0,39,0.00,,,0.00,Wunderground v.1.15,2013-12-31 17:16:00,
2013-12-31 12:17:00,45.9,22.9,30.29,West,260,3.0,10.0,40,0.00,,,0.00,Wunderground v.1.15,2013-12-31 17:17:00,
2013-12-31 12:20:00,46.2,24.3,30.29,SSW,207,4.0,5.0,42,0.00,,,0.00,Wunderground v.1.15,2013-12-31 17:20:00,
2013-12-31 12:21:00,46.4,24.5,30.29,SSW,205,5.0,5.0,42,0.00,,,0.00,Wunderground v.1.15,2013-12-31 17:21:00,
2013-12-31 12:22:00,46.4,23.9,30.29,WSW,239,3.0,6.0,41,0.00,,,0.00,Wunderground v.1.15,2013-12-31 17:22:00,
2013-12-31 12:23:00,46.5,24.0,30.29,WSW,257,3.0,6.0,41,0.00,,,0.00,Wunderground v.1.15,2013-12-31 17:23:00,
2013-12-31 12:25:00,46.6,23.5,30.29,SSE,168,3.0,6.0,40,0.00,,,0.00,Wunderground v.1.15,2013-12-31 17:25:00,
2013-12-31 12:26:00,46.6,23.5,30.29,SW,233,3.0,6.0,40,0.00,,,0.00,Wunderground v.1.15,2013-12-31 17:26:00,
2013-12-31 12:27:00,46.6,23.5,30.29,WSW,243,2.0,6.0,40,0.00,,,0.00,Wunderground v.1.15,2013-12-31 17:27:00,
2013-12-31 12:28:00,46.6,23.5,30.28,NNW,340,1.0,6.0,40,0.00,,,0.00,Wunderground v.1.15,2013-12-31 17:28:00,
2013-12-31 12:31:00,46.6,23.5,30.29,SW,217,3.0,4.0,40,0.00,,,0.00,Wunderground v.1.15,2013-12-31 17:31:00,
2013-12-31 12:32:00,46.7,23.6,30.29,WNW,300,4.0,7.0,40,0.00,,,0.00,Wunderground v.1.15,2013-12-31 17:32:00,
2013-12-31 12:33:00,46.7,23.0,30.29,West,266,5.0,7.0,39,0.00,,,0.00,Wunderground v.1.15,2013-12-31 17:33:00,
2013-12-31 12:36:00,46.6,22.9,30.29,WSW,240,4.0,7.0,39,0.00,,,0.00,Wunderground v.1.15,2013-12-31 17:36:00,
2013-12-31 12:37:00,46.6,22.9,30.29,SW,229,4.0,7.0,39,0.00,,,0.00,Wunderground v.1.15,2013-12-31 17:37:00,
2013-12-31 12:38:00,46.6,22.9,30.29,West,264,4.0,7.0,39,0.00,,,0.00,Wunderground v.1.15,2013-12-31 17:38:00,
2013-12-31 12:39:00,46.6,22.9,30.29,West,260,4.0,9.0,39,0.00,,,0.00,Wunderground v.1.15,2013-12-31 17:39:00,
2013-12-31 12:41:00,46.6,22.3,30.29,WSW,248,5.0,9.0,38,0.00,,,0.00,Wunderground v.1.15,2013-12-31 17:41:00,
2013-12-31 12:43:00,46.6,22.9,30.29,SW,229,2.0,9.0,39,0.00,,,0.00,Wunderground v.1.15,2013-12-31 17:43:00,
2013-12-31 12:44:00,46.6,23.5,30.28,WSW,249,1.0,9.0,40,0.00,,,0.00,Wunderground v.1.15,2013-12-31 17:44:00,
2013-12-31 12:46:00,46.6,22.9,30.28,WNW,300,2.0,9.0,39,0.00,,,0.00,Wunderground v.1.15,2013-12-31 17:46:00,
2013-12-31 12:48:00,46.7,23.6,30.28,WSW,255,4.0,9.0,40,0.00,,,0.00,Wunderground v.1.15,2013-12-31 17:48:00,
2013-12-31 12:49:00,46.7,23.6,30.28,WSW,240,4.0,9.0,40,0.00,,,0.00,Wunderground v.1.15,2013-12-31 17:49:00,
2013-12-31 12:51:00,46.9,23.2,30.28,WSW,243,5.0,5.0,39,0.00,,,0.00,Wunderground v.1.15,2013-12-31 17:51:00,
2013-12-31 12:53:00,47.1,24.6,30.28,SW,226,3.0,5.0,41,0.00,,,0.00,Wunderground v.1.15,2013-12-31 17:53:00,
2013-12-31 12:54:00,47.1,24.6,30.28,WSW,253,2.0,5.0,41,0.00,,,0.00,Wunderground v.1.15,2013-12-31 17:54:00,
2013-12-31 12:55:00,47.2,24.1,30.28,WNW,288,2.0,5.0,40,0.00,,,0.00,Wunderground v.1.15,2013-12-31 17:55:00,
2013-12-31 12:56:00,47.3,23.6,30.27,NW,312,4.0,5.0,39,0.00,,,0.00,Wunderground v.1.15,2013-12-31 17:56:00,
2013-12-31 12:59:00,47.3,24.2,30.27,WSW,237,5.0,5.0,40,0.00,,,0.00,Wunderground v.1.15,2013-12-31 17:59:00,
2013-12-31 13:00:00,47.3,22.9,30.27,WSW,245,2.0,3.0,38,0.00,,,0.00,Wunderground v.1.15,2013-12-31 18:00:00,
2013-12-31 13:01:00,47.3,22.9,30.27,WNW,284,5.0,5.0,38,0.00,,,0.00,Wunderground v.1.15,2013-12-31 18:01:00,
2013-12-31 13:04:00,47.1,22.8,30.28,SW,229,2.0,7.0,38,0.00,,,0.00,Wunderground v.1.15,2013-12-31 18:04:00,
2013-12-31 13:05:00,47.1,24.0,30.28,West,260,2.0,7.0,40,0.00,,,0.00,Wunderground v.1.15,2013-12-31 18:05:00,
2013-12-31 13:06:00,47.2,24.1,30.28,West,271,1.0,7.0,40,0.00,,,0.00,Wunderground v.1.15,2013-12-31 18:06:00,
2013-12-31 13:07:00,47.3,22.9,30.27,WNW,283,2.0,7.0,38,0.00,,,0.00,Wunderground v.1.15,2013-12-31 18:07:00,
2013-12-31 13:09:00,47.4,23.7,30.27,WSW,240,0.0,7.0,39,0.00,,,0.00,Wunderground v.1.15,2013-12-31 18:09:00,
2013-12-31 13:10:00,47.5,23.7,30.28,WNW,284,1.0,5.0,39,0.00,,,0.00,Wunderground v.1.15,2013-12-31 18:10:00,
2013-12-31 13:11:00,47.5,23.7,30.28,West,266,3.0,5.0,39,0.00,,,0.00,Wunderground v.1.15,2013-12-31 18:11:00,
2013-12-31 13:12:00,47.6,24.4,30.28,SW,215,1.0,6.0,40,0.00,,,0.00,Wunderground v.1.15,2013-12-31 18:12:00,
2013-12-31 13:14:00,47.7,23.3,30.28,West,273,4.0,6.0,38,0.00,,,0.00,Wunderground v.1.15,2013-12-31 18:14:00,
2013-12-31 13:15:00,47.7,23.3,30.28,WNW,288,4.0,6.0,38,0.00,,,0.00,Wunderground v.1.15,2013-12-31 18:15:00,
2013-12-31 13:16:00,47.7,23.3,30.28,WNW,291,4.0,6.0,38,0.00,,,0.00,Wunderground v.1.15,2013-12-31 18:16:00,
2013-12-31 13:17:00,47.7,22.7,30.28,WSW,257,3.0,6.0,37,0.00,,,0.00,Wunderground v.1.15,2013-12-31 18:17:00,
2013-12-31 13:20:00,47.5,23.1,30.28,WSW,255,3.0,5.0,38,0.00,,,0.00,Wunderground v.1.15,2013-12-31 18:20:00,
2013-12-31 13:21:00,47.5,22.5,30.28,West,276,4.0,5.0,37,0.00,,,0.00,Wunderground v.1.15,2013-12-31 18:21:00,
2013-12-31 13:22:00,47.5,22.5,30.28,SW,226,2.0,5.0,37,0.00,,,0.00,Wunderground v.1.15,2013-12-31 18:22:00,
2013-12-31 13:25:00,47.5,21.8,30.28,WSW,250,2.0,8.0,36,0.00,,,0.00,Wunderground v.1.15,2013-12-31 18:25:00,
2013-12-31 13:26:00,47.5,21.8,30.28,WSW,251,5.0,10.0,36,0.00,,,0.00,Wunderground v.1.15,2013-12-31 18:26:00,
2013-12-31 13:27:00,47.4,21.7,30.28,West,262,4.0,10.0,36,0.00,,,0.00,Wunderground v.1.15,2013-12-31 18:27:00,
2013-12-31 13:30:00,47.4,22.4,30.28,WSW,248,2.0,4.0,37,0.00,,,0.00,Wunderground v.1.15,2013-12-31 18:30:00,
2013-12-31 13:31:00,47.3,21.7,30.28,West,277,1.0,6.0,36,0.00,,,0.00,Wunderground v.1.15,2013-12-31 18:31:00,
2013-12-31 13:32:00,47.4,22.4,30.28,SSW,210,5.0,8.0,37,0.00,,,0.00,Wunderground v.1.15,2013-12-31 18:32:00,
2013-12-31 13:33:00,47.4,22.4,30.28,SSW,212,5.0,8.0,37,0.00,,,0.00,Wunderground v.1.15,2013-12-31 18:33:00,
2013-12-31 13:35:00,47.4,23.0,30.28,WNW,295,3.0,8.0,38,0.00,,,0.00,Wunderground v.1.15,2013-12-31 18:35:00,
2013-12-31 13:36:00,47.5,23.7,30.28,WNW,302,5.0,8.0,39,0.00,,,0.00,Wunderground v.1.15,2013-12-31 18:36:00,
2013-12-31 13:37:00,47.5,22.5,30.28,WNW,302,2.0,8.0,37,0.00,,,0.00,Wunderground v.1.15,2013-12-31 18:37:00,
2013-12-31 13:38:00,47.5,22.5,30.28,West,281,2.0,8.0,37,0.00,,,0.00,Wunderground v.1.15,2013-12-31 18:38:00,
2013-12-31 13:40:00,47.6,22.6,30.27,SW,228,7.0,7.0,37,0.00,,,0.00,Wunderground v.1.15,2013-12-31 18:40:00,
2013-12-31 13:41:00,47.6,22.6,30.27,WSW,243,5.0,7.0,37,0.00,,,0.00,Wunderground v.1.15,2013-12-31 18:41:00,
2013-12-31 13:42:00,47.6,22.6,30.27,WSW,240,3.0,8.0,37,0.00,,,0.00,Wunderground v.1.15,2013-12-31 18:42:00,
2013-12-31 13:43:00,47.6,22.6,30.27,SW,221,2.0,8.0,37,0.00,,,0.00,Wunderground v.1.15,2013-12-31 18:43:00,
2013-12-31 13:46:00,47.6,23.2,30.27,WNW,284,0.0,8.0,38,0.00,,,0.00,Wunderground v.1.15,2013-12-31 18:46:00,
2013-12-31 13:47:00,47.7,23.3,30.27,West,278,1.0,8.0,38,0.00,,,0.00,Wunderground v.1.15,2013-12-31 18:47:00,
2013-12-31 13:48:00,47.7,22.7,30.27,SW,235,3.0,8.0,37,0.00,,,0.00,Wunderground v.1.15,2013-12-31 18:48:00,
2013-12-31 13:51:00,47.6,23.8,30.27,SW,222,3.0,4.0,39,0.00,,,0.00,Wunderground v.1.15,2013-12-31 18:51:00,
2013-12-31 13:53:00,47.6,23.8,30.27,WSW,256,5.0,6.0,39,0.00,,,0.00,Wunderground v.1.15,2013-12-31 18:53:00,
2013-12-31 13:54:00,47.7,23.3,30.27,WSW,248,6.0,6.0,38,0.00,,,0.00,Wunderground v.1.15,2013-12-31 18:54:00,
2013-12-31 13:56:00,47.6,22.6,30.27,WSW,252,1.0,6.0,37,0.00,,,0.00,Wunderground v.1.15,2013-12-31 18:56:00,
2013-12-31 13:58:00,47.6,23.2,30.27,WNW,285,3.0,6.0,38,0.00,,,0.00,Wunderground v.1.15,2013-12-31 18:58:00,
2013-12-31 13:59:00,47.6,23.2,30.27,NW,312,4.0,6.0,38,0.00,,,0.00,Wunderground v.1.15,2013-12-31 18:59:00,
2013-12-31 14:01:00,47.7,23.3,30.28,SSW,203,5.0,6.0,38,0.00,,,0.00,Wunderground v.1.15,2013-12-31 19:01:00,
2013-12-31 14:04:00,47.7,23.3,30.27,WNW,289,2.0,6.0,38,0.00,,,0.00,Wunderground v.1.15,2013-12-31 19:04:00,
2013-12-31 14:06:00,47.7,22.7,30.27,West,280,1.0,6.0,37,0.00,,,0.00,Wunderground v.1.15,2013-12-31 19:06:00,
2013-12-31 14:07:00,47.7,23.9,30.27,West,276,2.0,6.0,39,0.00,,,0.00,Wunderground v.1.15,2013-12-31 19:07:00,
2013-12-31 14:09:00,47.7,23.9,30.27,NNW,340,5.0,6.0,39,0.00,,,0.00,Wunderground v.1.15,2013-12-31 19:09:00,
2013-12-31 14:11:00,47.7,22.7,30.27,NW,322,2.0,7.0,37,0.00,,,0.00,Wunderground v.1.15,2013-12-31 19:11:00,
2013-12-31 14:12:00,47.7,23.3,30.27,West,272,4.0,7.0,38,0.00,,,0.00,Wunderground v.1.15,2013-12-31 19:12:00,
2013-12-31 14:13:00,47.7,23.3,30.27,WSW,250,3.0,7.0,38,0.00,,,0.00,Wunderground v.1.15,2013-12-31 19:13:00,
2013-12-31 14:14:00,47.6,23.2,30.28,WSW,257,3.0,7.0,38,0.00,,,0.00,Wunderground v.1.15,2013-12-31 19:14:00,
2013-12-31 14:15:00,47.6,23.2,30.27,WNW,289,3.0,7.0,38,0.00,,,0.00,Wunderground v.1.15,2013-12-31 19:15:00,
2013-12-31 14:16:00,47.7,23.9,30.27,WSW,252,2.0,7.0,39,0.00,,,0.00,Wunderground v.1.15,2013-12-31 19:16:00,
2013-12-31 14:17:00,47.7,23.3,30.28,WSW,257,3.0,7.0,38,0.00,,,0.00,Wunderground v.1.15,2013-12-31 19:17:00,
2013-12-31 14:18:00,47.7,23.3,30.28,WSW,245,4.0,7.0,38,0.00,,,0.00,Wunderground v.1.15,2013-12-31 19:18:00,
2013-12-31 14:20:00,47.7,22.7,30.28,WSW,252,4.0,4.0,37,0.00,,,0.00,Wunderground v.1.15,2013-12-31 19:20:00,
2013-12-31 14:21:00,47.7,23.3,30.28,SW,225,5.0,5.0,38,0.00,,,0.00,Wunderground v.1.15,2013-12-31 19:21:00,
2013-12-31 14:22:00,47.7,22.7,30.27,SW,229,2.0,5.0,37,0.00,,,0.00,Wunderground v.1.15,2013-12-31 19:22:00,
2013-12-31 14:23:00,47.7,22.7,30.27,West,265,2.0,5.0,37,0.00,,,0.00,Wunderground v.1.15,2013-12-31 19:23:00,
2013-12-31 14:25:00,47.8,24.0,30.27,WNW,285,1.0,5.0,39,0.00,,,0.00,Wunderground v.1.15,2013-12-31 19:25:00,
2013-12-31 14:26:00,47.8,23.4,30.27,WNW,288,2.0,5.0,38,0.00,,,0.00,Wunderground v.1.15,2013-12-31 19:26:00,
2013-12-31 14:27:00,47.9,23.5,30.27,SW,235,1.0,5.0,38,0.00,,,0.00,Wunderground v.1.15,2013-12-31 19:27:00,
2013-12-31 14:29:00,47.9,23.5,30.27,WSW,250,2.0,5.0,38,0.00,,,0.00,Wunderground v.1.15,2013-12-31 19:29:00,
2013-12-31 14:30:00,47.9,23.5,30.27,WNW,282,1.0,4.0,38,0.00,,,0.00,Wunderground v.1.15,2013-12-31 19:30:00,
2013-12-31 14:31:00,47.9,23.5,30.27,WNW,296,2.0,4.0,38,0.00,,,0.00,Wunderground v.1.15,2013-12-31 19:31:00,
2013-12-31 14:32:00,48.0,23.6,30.27,WNW,285,0.0,4.0,38,0.00,,,0.00,Wunderground v.1.15,2013-12-31 19:32:00,
2013-12-31 14:33:00,48.0,24.8,30.27,West,269,2.0,4.0,40,0.00,,,0.00,Wunderground v.1.15,2013-12-31 19:33:00,
2013-12-31 14:34:00,48.0,23.6,30.27,WSW,257,1.0,4.0,38,0.00,,,0.00,Wunderground v.1.15,2013-12-31 19:34:00,
2013-12-31 14:36:00,48.0,23.6,30.27,SSW,212,0.0,4.0,38,0.00,,,0.00,Wunderground v.1.15,2013-12-31 19:36:00,
2013-12-31 14:37:00,48.0,24.2,30.27,SW,221,2.0,6.0,39,0.00,,,0.00,Wunderground v.1.15,2013-12-31 19:37:00,
2013-12-31 14:38:00,48.1,23.7,30.27,SW,233,4.0,6.0,38,0.00,,,0.00,Wunderground v.1.15,2013-12-31 19:38:00,
2013-12-31 14:39:00,48.1,23.7,30.27,SW,215,4.0,6.0,38,0.00,,,0.00,Wunderground v.1.15,2013-12-31 19:39:00,
2013-12-31 14:41:00,48.1,23.7,30.27,West,281,2.0,4.0,38,0.00,,,0.00,Wunderground v.1.15,2013-12-31 19:41:00,
2013-12-31 14:43:00,48.1,23.7,30.27,SW,232,2.0,4.0,38,0.00,,,0.00,Wunderground v.1.15,2013-12-31 19:43:00,
2013-12-31 14:44:00,48.2,23.7,30.27,WSW,253,3.0,5.0,38,0.00,,,0.00,Wunderground v.1.15,2013-12-31 19:44:00,
2013-12-31 14:46:00,48.1,24.3,30.27,West,263,2.0,5.0,39,0.00,,,0.00,Wunderground v.1.15,2013-12-31 19:46:00,
2013-12-31 14:48:00,48.2,24.4,30.27,SW,232,3.0,5.0,39,0.00,,,0.00,Wunderground v.1.15,2013-12-31 19:48:00,
2013-12-31 14:51:00,48.3,23.2,30.27,NW,305,2.0,3.0,37,0.00,,,0.00,Wunderground v.1.15,2013-12-31 19:51:00,
2013-12-31 14:53:00,48.3,23.8,30.27,West,277,1.0,3.0,38,0.00,,,0.00,Wunderground v.1.15,2013-12-31 19:53:00,
2013-12-31 14:54:00,48.3,23.2,30.27,WNW,285,1.0,3.0,37,0.00,,,0.00,Wunderground v.1.15,2013-12-31 19:54:00,
2013-12-31 14:56:00,48.4,23.9,30.27,WSW,244,1.0,3.0,38,0.00,,,0.00,Wunderground v.1.15,2013-12-31 19:56:00,
2013-12-31 14:57:00,48.4,23.9,30.27,SW,219,3.0,3.0,38,0.00,,,0.00,Wunderground v.1.15,2013-12-31 19:57:00,
2013-12-31 14:58:00,48.5,23.4,30.27,WSW,250,2.0,4.0,37,0.00,,,0.00,Wunderground v.1.15,2013-12-31 19:58:00,
2013-12-31 14:59:00,48.5,23.4,30.27,WNW,285,2.0,4.0,37,0.00,,,0.00,Wunderground v.1.15,2013-12-31 19:59:00,
2013-12-31 15:01:00,48.5,24.0,30.27,WSW,240,2.0,2.0,38,0.00,,,0.00,Wunderground v.1.15,2013-12-31 20:01:00,
2013-12-31 15:02:00,48.5,24.0,30.27,WSW,242,0.0,2.0,38,0.00,,,0.00,Wunderground v.1.15,2013-12-31 20:02:00,
2013-12-31 15:03:00,48.6,24.1,30.27,West,276,2.0,2.0,38,0.00,,,0.00,Wunderground v.1.15,2013-12-31 20:03:00,
2013-12-31 15:04:00,48.6,23.5,30.27,WSW,250,3.0,3.0,37,0.00,,,0.00,Wunderground v.1.15,2013-12-31 20:04:00,
2013-12-31 15:05:00,48.7,22.9,30.27,West,281,0.0,3.0,36,0.00,,,0.00,Wunderground v.1.15,2013-12-31 20:05:00,
2013-12-31 15:06:00,48.6,22.8,30.27,West,281,0.0,3.0,36,0.00,,,0.00,Wunderground v.1.15,2013-12-31 20:06:00,
2013-12-31 15:07:00,48.7,22.9,30.27,West,281,0.0,3.0,36,0.00,,,0.00,Wunderground v.1.15,2013-12-31 20:07:00,
2013-12-31 15:09:00,48.7,24.2,30.27,WNW,288,2.0,3.0,38,0.00,,,0.00,Wunderground v.1.15,2013-12-31 20:09:00,
2013-12-31 15:10:00,48.7,23.6,30.27,WNW,297,2.0,3.0,37,0.00,,,0.00,Wunderground v.1.15,2013-12-31 20:10:00,
2013-12-31 15:11:00,48.8,23.6,30.28,SW,229,3.0,5.0,37,0.00,,,0.00,Wunderground v.1.15,2013-12-31 20:11:00,
2013-12-31 15:12:00,48.8,23.6,30.28,SW,222,4.0,5.0,37,0.00,,,0.00,Wunderground v.1.15,2013-12-31 20:12:00,
2013-12-31 15:14:00,48.9,23.7,30.28,WSW,256,3.0,5.0,37,0.00,,,0.00,Wunderground v.1.15,2013-12-31 20:14:00,
2013-12-31 15:15:00,48.9,23.7,30.28,West,276,2.0,5.0,37,0.00,,,0.00,Wunderground v.1.15,2013-12-31 20:15:00,
2013-12-31 15:16:00,48.9,24.4,30.28,WNW,294,2.0,5.0,38,0.00,,,0.00,Wunderground v.1.15,2013-12-31 20:16:00,
2013-12-31 15:17:00,48.9,23.7,30.28,SW,223,4.0,5.0,37,0.00,,,0.00,Wunderground v.1.15,2013-12-31 20:17:00,
2013-12-31 15:19:00,48.9,23.7,30.28,WSW,255,3.0,5.0,37,0.00,,,0.00,Wunderground v.1.15,2013-12-31 20:19:00,
2013-12-31 15:20:00,48.9,23.1,30.28,WSW,248,5.0,6.0,36,0.00,,,0.00,Wunderground v.1.15,2013-12-31 20:20:00,
2013-12-31 15:22:00,48.9,23.1,30.28,SW,231,2.0,6.0,36,0.00,,,0.00,Wunderground v.1.15,2013-12-31 20:22:00,
2013-12-31 15:24:00,48.9,23.7,30.28,SSW,205,5.0,6.0,37,0.00,,,0.00,Wunderground v.1.15,2013-12-31 20:24:00,
2013-12-31 15:25:00,48.9,23.7,30.28,SW,229,2.0,6.0,37,0.00,,,0.00,Wunderground v.1.15,2013-12-31 20:25:00,
2013-12-31 15:27:00,48.9,23.7,30.28,SW,225,4.0,6.0,37,0.00,,,0.00,Wunderground v.1.15,2013-12-31 20:27:00,
2013-12-31 15:28:00,48.9,23.1,30.28,SW,232,2.0,6.0,36,0.00,,,0.00,Wunderground v.1.15,2013-12-31 20:28:00,
2013-12-31 15:29:00,48.9,22.4,30.28,SW,225,3.0,6.0,35,0.00,,,0.00,Wunderground v.1.15,2013-12-31 20:29:00,
2013-12-31 15:31:00,48.9,23.1,30.28,SSW,210,1.0,3.0,36,0.00,,,0.00,Wunderground v.1.15,2013-12-31 20:31:00,
2013-12-31 15:32:00,48.9,23.1,30.28,SW,214,1.0,3.0,36,0.00,,,0.00,Wunderground v.1.15,2013-12-31 20:32:00,
2013-12-31 15:33:00,48.9,23.7,30.28,SW,215,0.0,3.0,37,0.00,,,0.00,Wunderground v.1.15,2013-12-31 20:33:00,
2013-12-31 15:34:00,48.9,23.7,30.28,SW,215,0.0,3.0,37,0.00,,,0.00,Wunderground v.1.15,2013-12-31 20:34:00,
2013-12-31 15:36:00,48.9,23.7,30.28,SW,214,0.0,3.0,37,0.00,,,0.00,Wunderground v.1.15,2013-12-31 20:36:00,
2013-12-31 15:37:00,48.9,23.7,30.28,ESE,113,0.0,3.0,37,0.00,,,0.00,Wunderground v.1.15,2013-12-31 20:37:00,
2013-12-31 15:39:00,48.9,23.7,30.28,WSW,255,3.0,3.0,37,0.00,,,0.00,Wunderground v.1.15,2013-12-31 20:39:00,
2013-12-31 15:40:00,48.9,23.7,30.28,SW,232,1.0,1.0,37,0.00,,,0.00,Wunderground v.1.15,2013-12-31 20:40:00,
2013-12-31 15:41:00,48.9,23.7,30.28,SW,232,1.0,1.0,37,0.00,,,0.00,Wunderground v.1.15,2013-12-31 20:41:00,
2013-12-31 15:42:00,48.9,23.7,30.28,WNW,300,0.0,2.0,37,0.00,,,0.00,Wunderground v.1.15,2013-12-31 20:42:00,
2013-12-31 15:44:00,48.9,24.4,30.28,WNW,298,2.0,3.0,38,0.00,,,0.00,Wunderground v.1.15,2013-12-31 20:44:00,
2013-12-31 15:45:00,48.9,23.7,30.28,West,267,1.0,4.0,37,0.00,,,0.00,Wunderground v.1.15,2013-12-31 20:45:00,
2013-12-31 15:46:00,48.9,23.7,30.28,WSW,252,1.0,4.0,37,0.00,,,0.00,Wunderground v.1.15,2013-12-31 20:46:00,
2013-12-31 15:47:00,48.9,23.1,30.28,WSW,257,1.0,4.0,36,0.00,,,0.00,Wunderground v.1.15,2013-12-31 20:47:00,
2013-12-31 15:50:00,48.8,23.0,30.28,WSW,244,1.0,2.0,36,0.00,,,0.00,Wunderground v.1.15,2013-12-31 20:50:00,
2013-12-31 15:51:00,48.8,23.0,30.28,West,262,1.0,2.0,36,0.00,,,0.00,Wunderground v.1.15,2013-12-31 20:51:00,
2013-12-31 15:52:00,48.7,22.9,30.28,West,262,1.0,2.0,36,0.00,,,0.00,Wunderground v.1.15,2013-12-31 20:52:00,
2013-12-31 15:55:00,48.7,22.9,30.28,West,259,1.0,2.0,36,0.00,,,0.00,Wunderground v.1.15,2013-12-31 20:55:00,
2013-12-31 15:56:00,48.7,23.6,30.29,WSW,245,2.0,2.0,37,0.00,,,0.00,Wunderground v.1.15,2013-12-31 20:56:00,
2013-12-31 15:57:00,48.7,23.6,30.29,WSW,246,1.0,2.0,37,0.00,,,0.00,Wunderground v.1.15,2013-12-31 20:57:00,
2013-12-31 15:58:00,48.8,23.0,30.29,SW,226,2.0,2.0,36,0.00,,,0.00,Wunderground v.1.15,2013-12-31 20:58:00,
2013-12-31 16:00:00,48.9,23.1,30.28,West,260,2.0,2.0,36,0.00,,,0.00,Wunderground v.1.15,2013-12-31 21:00:00,
2013-12-31 16:02:00,48.9,23.1,30.28,WSW,245,3.0,3.0,36,0.00,,,0.00,Wunderground v.1.15,2013-12-31 21:02:00,
2013-12-31 16:04:00,48.9,23.1,30.28,WNW,300,2.0,3.0,36,0.00,,,0.00,Wunderground v.1.15,2013-12-31 21:04:00,
2013-12-31 16:05:00,48.9,23.1,30.28,ENE,68,2.0,3.0,36,0.00,,,0.00,Wunderground v.1.15,2013-12-31 21:05:00,
2013-12-31 16:08:00,48.7,24.2,30.28,NNE,20,0.0,3.0,38,0.00,,,0.00,Wunderground v.1.15,2013-12-31 21:08:00,
2013-12-31 16:09:00,48.7,24.2,30.29,West,262,1.0,3.0,38,0.00,,,0.00,Wunderground v.1.15,2013-12-31 21:09:00,
2013-12-31 16:11:00,48.7,23.6,30.29,West,274,0.0,1.0,37,0.00,,,0.00,Wunderground v.1.15,2013-12-31 21:11:00,
2013-12-31 16:13:00,48.6,23.5,30.29,WNW,290,1.0,2.0,37,0.00,,,0.00,Wunderground v.1.15,2013-12-31 21:13:00,
2013-12-31 16:14:00,48.6,23.5,30.29,WSW,255,2.0,4.0,37,0.00,,,0.00,Wunderground v.1.15,2013-12-31 21:14:00,
2013-12-31 16:16:00,48.5,22.1,30.29,WNW,285,2.0,4.0,35,0.00,,,0.00,Wunderground v.1.15,2013-12-31 21:16:00,
2013-12-31 16:18:00,48.5,21.4,30.29,WNW,290,0.0,5.0,34,0.00,,,0.00,Wunderground v.1.15,2013-12-31 21:18:00,
2013-12-31 16:19:00,48.5,21.4,30.29,WNW,290,1.0,5.0,34,0.00,,,0.00,Wunderground v.1.15,2013-12-31 21:19:00,
2013-12-31 16:20:00,48.4,22.0,30.29,East,81,0.0,1.0,35,0.00,,,0.00,Wunderground v.1.15,2013-12-31 21:20:00,
2013-12-31 16:21:00,48.2,22.5,30.29,NNW,345,2.0,5.0,36,0.00,,,0.00,Wunderground v.1.15,2013-12-31 21:21:00,
2013-12-31 16:23:00,48.1,21.7,30.29,NNE,29,2.0,5.0,35,0.00,,,0.00,Wunderground v.1.15,2013-12-31 21:23:00,
2013-12-31 16:24:00,48.1,21.7,30.29,NE,39,2.0,5.0,35,0.00,,,0.00,Wunderground v.1.15,2013-12-31 21:24:00,
2013-12-31 16:25:00,47.9,21.5,30.29,WNW,302,1.0,5.0,35,0.00,,,0.00,Wunderground v.1.15,2013-12-31 21:25:00,
2013-12-31 16:26:00,47.9,22.2,30.30,NNW,347,1.0,5.0,36,0.00,,,0.00,Wunderground v.1.15,2013-12-31 21:26:00,
2013-12-31 16:29:00,47.7,22.0,30.30,East,94,0.0,5.0,36,0.00,,,0.00,Wunderground v.1.15,2013-12-31 21:29:00,
2013-12-31 16:30:00,47.7,22.0,30.30,WNW,292,2.0,2.0,36,0.00,,,0.00,Wunderground v.1.15,2013-12-31 21:30:00,
2013-12-31 16:32:00,47.6,21.3,30.30,NNW,348,0.0,3.0,35,0.00,,,0.00,Wunderground v.1.15,2013-12-31 21:32:00,
2013-12-31 16:34:00,47.6,21.3,30.30,NW,318,2.0,4.0,35,0.00,,,0.00,Wunderground v.1.15,2013-12-31 21:34:00,
2013-12-31 16:35:00,47.5,20.5,30.30,WSW,249,1.0,4.0,34,0.00,,,0.00,Wunderground v.1.15,2013-12-31 21:35:00,
2013-12-31 16:36:00,47.5,21.8,30.30,WSW,237,2.0,4.0,36,0.00,,,0.00,Wunderground v.1.15,2013-12-31 21:36:00,
2013-12-31 16:37:00,47.5,21.2,30.30,WSW,250,1.0,4.0,35,0.00,,,0.00,Wunderground v.1.15,2013-12-31 21:37:00,
2013-12-31 16:39:00,47.4,21.1,30.30,WSW,242,2.0,4.0,35,0.00,,,0.00,Wunderground v.1.15,2013-12-31 21:39:00,
2013-12-31 16:40:00,47.4,21.1,30.30,WSW,242,2.0,2.0,35,0.00,,,0.00,Wunderground v.1.15,2013-12-31 21:40:00,
2013-12-31 16:41:00,47.4,20.4,30.30,WSW,246,3.0,4.0,34,0.00,,,0.00,Wunderground v.1.15,2013-12-31 21:41:00,
2013-12-31 16:42:00,47.3,20.3,30.30,WNW,283,2.0,4.0,34,0.00,,,0.00,Wunderground v.1.15,2013-12-31 21:42:00,
2013-12-31 16:44:00,47.3,20.3,30.30,WSW,250,1.0,4.0,34,0.00,,,0.00,Wunderground v.1.15,2013-12-31 21:44:00,
2013-12-31 16:45:00,47.2,20.9,30.30,WSW,250,0.0,4.0,35,0.00,,,0.00,Wunderground v.1.15,2013-12-31 21:45:00,
2013-12-31 16:46:00,47.2,20.9,30.30,WSW,250,1.0,4.0,35,0.00,,,0.00,Wunderground v.1.15,2013-12-31 21:46:00,
2013-12-31 16:47:00,47.1,20.8,30.30,SW,235,1.0,4.0,35,0.00,,,0.00,Wunderground v.1.15,2013-12-31 21:47:00,
2013-12-31 16:48:00,47.1,20.8,30.30,WSW,240,1.0,4.0,35,0.00,,,0.00,Wunderground v.1.15,2013-12-31 21:48:00,
2013-12-31 16:49:00,47.1,20.8,30.30,WSW,256,1.0,4.0,35,0.00,,,0.00,Wunderground v.1.15,2013-12-31 21:49:00,
2013-12-31 16:50:00,46.9,20.6,30.30,WNW,283,1.0,2.0,35,0.00,,,0.00,Wunderground v.1.15,2013-12-31 21:50:00,
2013-12-31 16:51:00,46.9,20.0,30.30,WNW,283,0.0,2.0,34,0.00,,,0.00,Wunderground v.1.15,2013-12-31 21:51:00,
2013-12-31 16:52:00,46.8,20.6,30.30,WSW,252,1.0,2.0,35,0.00,,,0.00,Wunderground v.1.15,2013-12-31 21:52:00,
2013-12-31 16:53:00,46.8,20.6,30.30,WSW,255,1.0,2.0,35,0.00,,,0.00,Wunderground v.1.15,2013-12-31 21:53:00,
2013-12-31 16:54:00,46.7,20.5,30.30,WSW,255,1.0,2.0,35,0.00,,,0.00,Wunderground v.1.15,2013-12-31 21:54:00,
2013-12-31 16:55:00,46.6,20.4,30.30,WSW,255,0.0,2.0,35,0.00,,,0.00,Wunderground v.1.15,2013-12-31 21:55:00,
2013-12-31 16:56:00,46.6,20.4,30.30,WSW,255,1.0,2.0,35,0.00,,,0.00,Wunderground v.1.15,2013-12-31 21:56:00,
2013-12-31 16:57:00,46.5,20.3,30.30,WSW,255,0.0,2.0,35,0.00,,,0.00,Wunderground v.1.15,2013-12-31 21:57:00,
2013-12-31 16:58:00,46.4,20.2,30.30,WSW,255,1.0,2.0,35,0.00,,,0.00,Wunderground v.1.15,2013-12-31 21:58:00,
2013-12-31 16:59:00,46.3,20.1,30.30,WSW,255,0.0,2.0,35,0.00,,,0.00,Wunderground v.1.15,2013-12-31 21:59:00,
2013-12-31 17:01:00,46.1,20.6,30.30,SW,230,1.0,2.0,36,0.00,,,0.00,Wunderground v.1.15,2013-12-31 22:01:00,
2013-12-31 17:03:00,45.9,20.4,30.30,SW,229,0.0,2.0,36,0.00,,,0.00,Wunderground v.1.15,2013-12-31 22:03:00,
2013-12-31 17:04:00,45.8,21.0,30.30,SW,229,0.0,2.0,37,0.00,,,0.00,Wunderground v.1.15,2013-12-31 22:04:00,
2013-12-31 17:05:00,45.7,20.2,30.30,SW,229,0.0,2.0,36,0.00,,,0.00,Wunderground v.1.15,2013-12-31 22:05:00,
2013-12-31 17:06:00,45.6,20.1,30.30,SW,229,0.0,2.0,36,0.00,,,0.00,Wunderground v.1.15,2013-12-31 22:06:00,
2013-12-31 17:08:00,45.4,21.2,30.30,SW,229,0.0,2.0,38,0.00,,,0.00,Wunderground v.1.15,2013-12-31 22:08:00,
2013-12-31 17:09:00,45.2,21.1,30.30,SW,229,0.0,2.0,38,0.00,,,0.00,Wunderground v.1.15,2013-12-31 22:09:00,
2013-12-31 17:10:00,45.1,21.0,30.30,SW,230,0.0,0.0,38,0.00,,,0.00,Wunderground v.1.15,2013-12-31 22:10:00,
2013-12-31 17:11:00,44.9,20.2,30.30,SW,229,0.0,0.0,37,0.00,,,0.00,Wunderground v.1.15,2013-12-31 22:11:00,
2013-12-31 17:12:00,44.8,20.1,30.30,SW,230,0.0,0.0,37,0.00,,,0.00,Wunderground v.1.15,2013-12-31 22:12:00,
2013-12-31 17:13:00,44.6,20.5,30.30,SW,229,0.0,0.0,38,0.00,,,0.00,Wunderground v.1.15,2013-12-31 22:13:00,
2013-12-31 17:14:00,44.5,19.8,30.30,SW,229,0.0,1.0,37,0.00,,,0.00,Wunderground v.1.15,2013-12-31 22:14:00,
2013-12-31 17:15:00,44.3,19.6,30.30,SW,230,1.0,1.0,37,0.00,,,0.00,Wunderground v.1.15,2013-12-31 22:15:00,
2013-12-31 17:16:00,44.3,19.6,30.30,SW,229,1.0,1.0,37,0.00,,,0.00,Wunderground v.1.15,2013-12-31 22:16:00,
2013-12-31 17:17:00,44.3,19.6,30.30,SW,229,1.0,2.0,37,0.00,,,0.00,Wunderground v.1.15,2013-12-31 22:17:00,
2013-12-31 17:19:00,44.3,19.6,30.30,SW,232,1.0,2.0,37,0.00,,,0.00,Wunderground v.1.15,2013-12-31 22:19:00,
2013-12-31 17:20:00,44.3,19.6,30.30,SW,226,1.0,2.0,37,0.00,,,0.00,Wunderground v.1.15,2013-12-31 22:20:00,
2013-12-31 17:21:00,44.3,19.6,30.30,SW,224,1.0,2.0,37,0.00,,,0.00,Wunderground v.1.15,2013-12-31 22:21:00,
2013-12-31 17:22:00,44.3,19.6,30.30,West,264,2.0,2.0,37,0.00,,,0.00,Wunderground v.1.15,2013-12-31 22:22:00,
2013-12-31 17:24:00,44.3,19.6,30.30,West,263,0.0,2.0,37,0.00,,,0.00,Wunderground v.1.15,2013-12-31 22:24:00,
2013-12-31 17:25:00,44.3,19.6,30.31,West,262,0.0,2.0,37,0.00,,,0.00,Wunderground v.1.15,2013-12-31 22:25:00,
2013-12-31 17:26:00,44.2,20.2,30.31,West,262,0.0,2.0,38,0.00,,,0.00,Wunderground v.1.15,2013-12-31 22:26:00,
2013-12-31 17:27:00,44.1,19.5,30.31,WSW,257,1.0,2.0,37,0.00,,,0.00,Wunderground v.1.15,2013-12-31 22:27:00,
2013-12-31 17:28:00,44.1,19.5,30.31,WSW,238,0.0,2.0,37,0.00,,,0.00,Wunderground v.1.15,2013-12-31 22:28:00,
2013-12-31 17:29:00,44.1,19.5,30.31,WSW,238,0.0,2.0,37,0.00,,,0.00,Wunderground v.1.15,2013-12-31 22:29:00,
2013-12-31 17:30:00,44.1,19.5,30.31,WSW,239,0.0,0.0,37,0.00,,,0.00,Wunderground v.1.15,2013-12-31 22:30:00,
2013-12-31 17:31:00,44.0,19.4,30.31,WSW,239,0.0,0.0,37,0.00,,,0.00,Wunderground v.1.15,2013-12-31 22:31:00,
2013-12-31 17:32:00,44.0,19.4,30.31,WSW,239,0.0,0.0,37,0.00,,,0.00,Wunderground v.1.15,2013-12-31 22:32:00,
2013-12-31 17:33:00,43.9,19.3,30.31,WSW,239,0.0,0.0,37,0.00,,,0.00,Wunderground v.1.15,2013-12-31 22:33:00,
2013-12-31 17:34:00,43.9,19.9,30.31,WSW,239,0.0,1.0,38,0.00,,,0.00,Wunderground v.1.15,2013-12-31 22:34:00,
2013-12-31 17:35:00,43.9,19.9,30.31,WSW,239,0.0,1.0,38,0.00,,,0.00,Wunderground v.1.15,2013-12-31 22:35:00,
2013-12-31 17:36:00,43.7,19.7,30.31,WSW,239,0.0,1.0,38,0.00,,,0.00,Wunderground v.1.15,2013-12-31 22:36:00,
2013-12-31 17:37:00,43.6,19.6,30.31,WSW,239,0.0,1.0,38,0.00,,,0.00,Wunderground v.1.15,2013-12-31 22:37:00,
2013-12-31 17:38:00,43.4,19.5,30.31,WSW,239,0.0,1.0,38,0.00,,,0.00,Wunderground v.1.15,2013-12-31 22:38:00,
2013-12-31 17:39:00,43.3,19.4,30.31,WSW,238,0.0,1.0,38,0.00,,,0.00,Wunderground v.1.15,2013-12-31 22:39:00,
2013-12-31 17:40:00,43.3,19.4,30.31,WSW,239,0.0,0.0,38,0.00,,,0.00,Wunderground v.1.15,2013-12-31 22:40:00,
2013-12-31 17:41:00,43.2,19.9,30.31,WSW,239,0.0,0.0,39,0.00,,,0.00,Wunderground v.1.15,2013-12-31 22:41:00,
2013-12-31 17:43:00,42.9,19.6,30.31,WSW,239,0.0,0.0,39,0.00,,,0.00,Wunderground v.1.15,2013-12-31 22:43:00,
2013-12-31 17:44:00,42.8,19.5,30.32,WSW,245,1.0,1.0,39,0.00,,,0.00,Wunderground v.1.15,2013-12-31 22:44:00,
2013-12-31 17:45:00,42.7,19.4,30.32,West,276,0.0,2.0,39,0.00,,,0.00,Wunderground v.1.15,2013-12-31 22:45:00,
2013-12-31 17:46:00,42.7,19.4,30.32,West,275,1.0,2.0,39,0.00,,,0.00,Wunderground v.1.15,2013-12-31 22:46:00,
2013-12-31 17:47:00,42.7,20.0,30.32,West,271,1.0,2.0,40,0.00,,,0.00,Wunderground v.1.15,2013-12-31 22:47:00,
2013-12-31 17:48:00,42.6,19.3,30.32,WSW,250,1.0,2.0,39,0.00,,,0.00,Wunderground v.1.15,2013-12-31 22:48:00,
2013-12-31 17:49:00,42.6,19.3,30.32,WSW,250,1.0,2.0,39,0.00,,,0.00,Wunderground v.1.15,2013-12-31 22:49:00,
2013-12-31 17:50:00,42.6,19.3,30.32,West,271,1.0,2.0,39,0.00,,,0.00,Wunderground v.1.15,2013-12-31 22:50:00,
2013-12-31 17:51:00,42.6,19.9,30.32,West,271,0.0,2.0,40,0.00,,,0.00,Wunderground v.1.15,2013-12-31 22:51:00,
2013-12-31 17:52:00,42.6,19.9,30.32,West,271,0.0,2.0,40,0.00,,,0.00,Wunderground v.1.15,2013-12-31 22:52:00,
2013-12-31 17:54:00,42.5,19.8,30.32,WSW,256,2.0,2.0,40,0.00,,,0.00,Wunderground v.1.15,2013-12-31 22:54:00,
2013-12-31 17:55:00,42.3,19.7,30.32,WSW,250,0.0,2.0,40,0.00,,,0.00,Wunderground v.1.15,2013-12-31 22:55:00,
2013-12-31 17:56:00,42.3,20.2,30.33,WSW,250,0.0,2.0,41,0.00,,,0.00,Wunderground v.1.15,2013-12-31 22:56:00,
2013-12-31 17:57:00,42.3,20.2,30.33,WSW,250,1.0,2.0,41,0.00,,,0.00,Wunderground v.1.15,2013-12-31 22:57:00,
2013-12-31 17:58:00,42.2,19.6,30.33,WSW,250,0.0,2.0,40,0.00,,,0.00,Wunderground v.1.15,2013-12-31 22:58:00,
2013-12-31 17:59:00,42.1,19.5,30.33,SW,226,2.0,2.0,40,0.00,,,0.00,Wunderground v.1.15,2013-12-31 22:59:00,
2013-12-31 18:01:00,42.2,19.6,30.33,WSW,242,2.0,2.0,40,0.00,,,0.00,Wunderground v.1.15,2013-12-31 23:01:00,
2013-12-31 18:02:00,42.2,19.0,30.33,WSW,256,1.0,3.0,39,0.00,,,0.00,Wunderground v.1.15,2013-12-31 23:02:00,
2013-12-31 18:03:00,42.2,19.6,30.33,WSW,248,2.0,3.0,40,0.00,,,0.00,Wunderground v.1.15,2013-12-31 23:03:00,
2013-12-31 18:04:00,42.2,19.6,30.33,WSW,248,1.0,3.0,40,0.00,,,0.00,Wunderground v.1.15,2013-12-31 23:04:00,
2013-12-31 18:05:00,42.2,19.6,30.33,SW,224,2.0,3.0,40,0.00,,,0.00,Wunderground v.1.15,2013-12-31 23:05:00,
2013-12-31 18:06:00,42.2,19.0,30.33,SW,235,1.0,3.0,39,0.00,,,0.00,Wunderground v.1.15,2013-12-31 23:06:00,
2013-12-31 18:07:00,42.3,19.1,30.33,SW,235,0.0,3.0,39,0.00,,,0.00,Wunderground v.1.15,2013-12-31 23:07:00,
2013-12-31 18:08:00,42.3,19.7,30.33,SW,232,2.0,3.0,40,0.00,,,0.00,Wunderground v.1.15,2013-12-31 23:08:00,
2013-12-31 18:09:00,42.3,19.1,30.33,SW,232,1.0,3.0,39,0.00,,,0.00,Wunderground v.1.15,2013-12-31 23:09:00,
2013-12-31 18:10:00,42.3,19.1,30.33,WSW,238,1.0,1.0,39,0.00,,,0.00,Wunderground v.1.15,2013-12-31 23:10:00,
2013-12-31 18:11:00,42.3,19.1,30.33,WSW,246,1.0,1.0,39,0.00,,,0.00,Wunderground v.1.15,2013-12-31 23:11:00,
2013-12-31 18:12:00,42.3,19.1,30.33,WSW,246,0.0,1.0,39,0.00,,,0.00,Wunderground v.1.15,2013-12-31 23:12:00,
2013-12-31 18:13:00,42.3,19.1,30.33,WSW,246,0.0,1.0,39,0.00,,,0.00,Wunderground v.1.15,2013-12-31 23:13:00,
2013-12-31 18:15:00,42.3,19.1,30.33,WSW,246,0.0,1.0,39,0.00,,,0.00,Wunderground v.1.15,2013-12-31 23:15:00,
2013-12-31 18:16:00,42.2,19.6,30.33,WSW,246,0.0,1.0,40,0.00,,,0.00,Wunderground v.1.15,2013-12-31 23:16:00,
2013-12-31 18:17:00,42.2,19.0,30.33,WSW,246,0.0,1.0,39,0.00,,,0.00,Wunderground v.1.15,2013-12-31 23:17:00,
2013-12-31 18:18:00,42.1,19.5,30.33,WSW,246,0.0,1.0,40,0.00,,,0.00,Wunderground v.1.15,2013-12-31 23:18:00,
2013-12-31 18:20:00,42.0,20.0,30.33,WSW,246,0.0,0.0,41,0.00,,,0.00,Wunderground v.1.15,2013-12-31 23:20:00,
2013-12-31 18:21:00,41.8,19.2,30.34,WSW,246,0.0,0.0,40,0.00,,,0.00,Wunderground v.1.15,2013-12-31 23:21:00,
2013-12-31 18:22:00,41.7,19.1,30.34,WSW,246,0.0,1.0,40,0.00,,,0.00,Wunderground v.1.15,2013-12-31 23:22:00,
2013-12-31 18:23:00,41.7,19.1,30.34,WSW,246,0.0,1.0,40,0.00,,,0.00,Wunderground v.1.15,2013-12-31 23:23:00,
2013-12-31 18:24:00,41.5,19.5,30.34,WSW,246,0.0,1.0,41,0.00,,,0.00,Wunderground v.1.15,2013-12-31 23:24:00,
2013-12-31 18:25:00,41.4,19.4,30.33,WSW,246,0.0,1.0,41,0.00,,,0.00,Wunderground v.1.15,2013-12-31 23:25:00,
2013-12-31 18:26:00,41.4,19.4,30.34,WSW,246,0.0,1.0,41,0.00,,,0.00,Wunderground v.1.15,2013-12-31 23:26:00,
2013-12-31 18:27:00,41.3,19.3,30.34,WSW,246,0.0,1.0,41,0.00,,,0.00,Wunderground v.1.15,2013-12-31 23:27:00,
2013-12-31 18:28:00,41.3,19.3,30.34,WSW,246,0.0,1.0,41,0.00,,,0.00,Wunderground v.1.15,2013-12-31 23:28:00,
2013-12-31 18:30:00,41.2,19.2,30.34,WSW,246,0.0,0.0,41,0.00,,,0.00,Wunderground v.1.15,2013-12-31 23:30:00,
2013-12-31 18:31:00,41.0,19.1,30.34,WSW,246,0.0,0.0,41,0.00,,,0.00,Wunderground v.1.15,2013-12-31 23:31:00,
2013-12-31 18:32:00,41.0,19.1,30.34,WSW,246,0.0,0.0,41,0.00,,,0.00,Wunderground v.1.15,2013-12-31 23:32:00,
2013-12-31 18:33:00,40.9,19.0,30.34,WSW,246,0.0,0.0,41,0.00,,,0.00,Wunderground v.1.15,2013-12-31 23:33:00,
2013-12-31 18:35:00,40.7,19.4,30.34,WSW,246,0.0,0.0,42,0.00,,,0.00,Wunderground v.1.15,2013-12-31 23:35:00,
2013-12-31 18:36:00,40.6,19.3,30.34,WSW,246,0.0,0.0,42,0.00,,,0.00,Wunderground v.1.15,2013-12-31 23:36:00,
2013-12-31 18:37:00,40.5,18.6,30.34,WSW,246,0.0,0.0,41,0.00,,,0.00,Wunderground v.1.15,2013-12-31 23:37:00,
2013-12-31 18:39:00,40.4,19.1,30.34,WSW,247,0.0,0.0,42,0.00,,,0.00,Wunderground v.1.15,2013-12-31 23:39:00,
2013-12-31 18:40:00,40.4,19.1,30.34,WSW,246,0.0,0.0,42,0.00,,,0.00,Wunderground v.1.15,2013-12-31 23:40:00,
2013-12-31 18:41:00,40.4,19.1,30.34,WSW,246,0.0,0.0,42,0.00,,,0.00,Wunderground v.1.15,2013-12-31 23:41:00,
2013-12-31 18:42:00,40.4,19.1,30.34,WSW,246,0.0,0.0,42,0.00,,,0.00,Wunderground v.1.15,2013-12-31 23:42:00,
2013-12-31 18:45:00,40.3,19.0,30.34,WSW,246,0.0,0.0,42,0.00,,,0.00,Wunderground v.1.15,2013-12-31 23:45:00,
2013-12-31 18:46:00,40.4,19.1,30.34,WSW,246,0.0,0.0,42,0.00,,,0.00,Wunderground v.1.15,2013-12-31 23:46:00,
2013-12-31 18:47:00,40.4,19.6,30.34,WSW,246,0.0,0.0,43,0.00,,,0.00,Wunderground v.1.15,2013-12-31 23:47:00,
2013-12-31 18:50:00,40.2,19.5,30.34,WSW,246,0.0,0.0,43,0.00,,,0.00,Wunderground v.1.15,2013-12-31 23:50:00,
2013-12-31 18:51:00,40.2,19.5,30.34,WSW,247,0.0,0.0,43,0.00,,,0.00,Wunderground v.1.15,2013-12-31 23:51:00,
2013-12-31 18:52:00,40.1,19.4,30.34,WSW,246,0.0,0.0,43,0.00,,,0.00,Wunderground v.1.15,2013-12-31 23:52:00,
2013-12-31 18:53:00,40.0,18.7,30.34,WSW,246,0.0,0.0,42,0.00,,,0.00,Wunderground v.1.15,2013-12-31 23:53:00,
2013-12-31 18:56:00,39.6,19.5,30.34,WSW,246,0.0,0.0,44,0.00,,,0.00,Wunderground v.1.15,2013-12-31 23:56:00,
2013-12-31 18:57:00,39.5,19.9,30.34,WSW,246,0.0,0.0,45,0.00,,,0.00,Wunderground v.1.15,2013-12-31 23:57:00,
2013-12-31 18:58:00,39.4,20.3,30.34,WSW,246,0.0,0.0,46,0.00,,,0.00,Wunderground v.1.15,2013-12-31 23:58:00,
2013-12-31 18:59:00,39.3,19.7,30.34,WSW,246,0.0,0.0,45,0.00,,,0.00,Wunderground v.1.15,2013-12-31 23:59:00,
2013-12-31 19:01:00,38.9,19.9,30.35,WSW,246,0.0,0.0,46,0.00,,,0.00,Wunderground v.1.15,2014-01-01 00:01:00,
2013-12-31 19:02:00,38.9,19.9,30.35,WSW,246,0.0,0.0,46,0.00,,,0.00,Wunderground v.1.15,2014-01-01 00:02:00,
2013-12-31 19:03:00,38.8,19.8,30.34,WSW,246,0.0,0.0,46,0.00,,,0.00,Wunderground v.1.15,2014-01-01 00:03:00,
2013-12-31 19:04:00,38.7,19.7,30.35,WSW,246,0.0,0.0,46,0.00,,,0.00,Wunderground v.1.15,2014-01-01 00:04:00,
2013-12-31 19:06:00,38.6,19.1,30.35,WSW,246,0.0,0.0,45,0.00,,,0.00,Wunderground v.1.15,2014-01-01 00:06:00,
2013-12-31 19:07:00,38.6,19.6,30.35,WSW,246,0.0,0.0,46,0.00,,,0.00,Wunderground v.1.15,2014-01-01 00:07:00,
2013-12-31 19:08:00,38.6,19.1,30.35,WSW,247,0.0,0.0,45,0.00,,,0.00,Wunderground v.1.15,2014-01-01 00:08:00,
2013-12-31 19:09:00,38.5,19.0,30.35,WSW,246,0.0,0.0,45,0.00,,,0.00,Wunderground v.1.15,2014-01-01 00:09:00,
2013-12-31 19:11:00,38.4,18.9,30.35,WSW,246,0.0,0.0,45,0.00,,,0.00,Wunderground v.1.15,2014-01-01 00:11:00,
2013-12-31 19:12:00,38.3,18.8,30.35,WSW,246,0.0,0.0,45,0.00,,,0.00,Wunderground v.1.15,2014-01-01 00:12:00,
2013-12-31 19:13:00,38.3,18.8,30.35,WSW,247,0.0,0.0,45,0.00,,,0.00,Wunderground v.1.15,2014-01-01 00:13:00,
2013-12-31 19:14:00,38.3,18.8,30.35,WSW,246,0.0,0.0,45,0.00,,,0.00,Wunderground v.1.15,2014-01-01 00:14:00,
2013-12-31 19:16:00,38.2,19.2,30.35,WSW,246,0.0,0.0,46,0.00,,,0.00,Wunderground v.1.15,2014-01-01 00:16:00,
2013-12-31 19:17:00,38.2,19.2,30.35,WSW,246,0.0,0.0,46,0.00,,,0.00,Wunderground v.1.15,2014-01-01 00:17:00,
2013-12-31 19:18:00,38.2,19.2,30.35,WSW,246,0.0,0.0,46,0.00,,,0.00,Wunderground v.1.15,2014-01-01 00:18:00,
2013-12-31 19:19:00,38.2,19.7,30.35,WSW,246,0.0,0.0,47,0.00,,,0.00,Wunderground v.1.15,2014-01-01 00:19:00,
2013-12-31 19:20:00,38.1,19.6,30.35,WSW,246,0.0,0.0,47,0.00,,,0.00,Wunderground v.1.15,2014-01-01 00:20:00,
2013-12-31 19:22:00,37.9,19.9,30.35,WSW,246,0.0,0.0,48,0.00,,,0.00,Wunderground v.1.15,2014-01-01 00:22:00,
2013-12-31 19:23:00,37.8,19.3,30.35,WSW,247,0.0,0.0,47,0.00,,,0.00,Wunderground v.1.15,2014-01-01 00:23:00,
2013-12-31 19:24:00,37.8,20.8,30.35,WSW,246,0.0,0.0,50,0.00,,,0.00,Wunderground v.1.15,2014-01-01 00:24:00,
2013-12-31 19:25:00,37.7,21.2,30.36,WSW,246,0.0,0.0,51,0.00,,,0.00,Wunderground v.1.15,2014-01-01 00:25:00,
2013-12-31 19:27:00,37.6,20.6,30.35,WSW,246,0.0,0.0,50,0.00,,,0.00,Wunderground v.1.15,2014-01-01 00:27:00,
2013-12-31 19:28:00,37.5,20.1,30.35,WSW,246,0.0,0.0,49,0.00,,,0.00,Wunderground v.1.15,2014-01-01 00:28:00,
2013-12-31 19:29:00,37.5,19.6,30.35,WSW,246,0.0,0.0,48,0.00,,,0.00,Wunderground v.1.15,2014-01-01 00:29:00,
2013-12-31 19:30:00,37.4,19.5,30.35,WSW,246,0.0,0.0,48,0.00,,,0.00,Wunderground v.1.15,2014-01-01 00:30:00,
2013-12-31 19:32:00,37.4,19.0,30.35,WSW,246,0.0,0.0,47,0.00,,,0.00,Wunderground v.1.15,2014-01-01 00:32:00,
2013-12-31 19:33:00,37.4,20.0,30.35,WSW,246,0.0,0.0,49,0.00,,,0.00,Wunderground v.1.15,2014-01-01 00:33:00,
2013-12-31 19:34:00,37.4,20.0,30.35,WSW,246,0.0,0.0,49,0.00,,,0.00,Wunderground v.1.15,2014-01-01 00:34:00,
2013-12-31 19:35:00,37.4,20.0,30.35,WSW,246,0.0,0.0,49,0.00,,,0.00,Wunderground v.1.15,2014-01-01 00:35:00,
2013-12-31 19:37:00,37.3,19.4,30.35,WSW,246,0.0,0.0,48,0.00,,,0.00,Wunderground v.1.15,2014-01-01 00:37:00,
2013-12-31 19:39:00,37.2,19.3,30.35,WSW,246,0.0,0.0,48,0.00,,,0.00,Wunderground v.1.15,2014-01-01 00:39:00,
2013-12-31 19:40:00,37.1,19.2,30.35,WSW,246,0.0,0.0,48,0.00,,,0.00,Wunderground v.1.15,2014-01-01 00:40:00,
2013-12-31 19:43:00,36.9,19.0,30.35,WSW,246,0.0,0.0,48,0.00,,,0.00,Wunderground v.1.15,2014-01-01 00:43:00,
2013-12-31 19:44:00,36.8,19.4,30.36,WSW,246,0.0,0.0,49,0.00,,,0.00,Wunderground v.1.15,2014-01-01 00:44:00,
2013-12-31 19:45:00,36.8,19.4,30.36,WSW,246,0.0,0.0,49,0.00,,,0.00,Wunderground v.1.15,2014-01-01 00:45:00,
2013-12-31 19:48:00,36.8,19.9,30.35,SW,232,0.0,0.0,50,0.00,,,0.00,Wunderground v.1.15,2014-01-01 00:48:00,
2013-12-31 19:49:00,37.0,19.6,30.35,SW,232,0.0,0.0,49,0.00,,,0.00,Wunderground v.1.15,2014-01-01 00:49:00,
2013-12-31 19:50:00,37.1,19.7,30.35,SW,232,0.0,0.0,49,0.00,,,0.00,Wunderground v.1.15,2014-01-01 00:50:00,
2013-12-31 19:51:00,37.2,19.8,30.35,SW,232,0.0,0.0,49,0.00,,,0.00,Wunderground v.1.15,2014-01-01 00:51:00,
2013-12-31 19:52:00,37.3,19.9,30.35,SW,232,0.0,0.0,49,0.00,,,0.00,Wunderground v.1.15,2014-01-01 00:52:00,
2013-12-31 19:53:00,37.3,19.4,30.35,SW,232,0.0,0.0,48,0.00,,,0.00,Wunderground v.1.15,2014-01-01 00:53:00,
2013-12-31 19:54:00,37.5,19.6,30.36,SW,232,0.0,0.0,48,0.00,,,0.00,Wunderground v.1.15,2014-01-01 00:54:00,
2013-12-31 19:55:00,37.5,19.6,30.36,SW,232,0.0,0.0,48,0.00,,,0.00,Wunderground v.1.15,2014-01-01 00:55:00,
2013-12-31 19:56:00,37.6,19.2,30.36,West,271,0.0,0.0,47,0.00,,,0.00,Wunderground v.1.15,2014-01-01 00:56:00,
2013-12-31 19:57:00,37.7,19.3,30.36,West,273,0.0,0.0,47,0.00,,,0.00,Wunderground v.1.15,2014-01-01 00:57:00,
2013-12-31 19:59:00,37.8,19.8,30.36,West,273,0.0,0.0,48,0.00,,,0.00,Wunderground v.1.15,2014-01-01 00:59:00,
2013-12-31 20:00:00,37.8,19.3,30.36,West,273,0.0,0.0,47,0.00,,,0.00,Wunderground v.1.15,2014-01-01 01:00:00,
2013-12-31 20:01:00,37.8,19.3,30.36,West,273,0.0,0.0,47,0.00,,,0.00,Wunderground v.1.15,2014-01-01 01:01:00,
2013-12-31 20:02:00,37.7,19.3,30.36,West,273,0.0,0.0,47,0.00,,,0.00,Wunderground v.1.15,2014-01-01 01:02:00,
2013-12-31 20:04:00,37.7,19.8,30.36,West,273,0.0,0.0,48,0.00,,,0.00,Wunderground v.1.15,2014-01-01 01:04:00,
2013-12-31 20:05:00,37.7,20.2,30.36,West,273,0.0,0.0,49,0.00,,,0.00,Wunderground v.1.15,2014-01-01 01:05:00,
2013-12-31 20:06:00,37.6,20.1,30.36,West,273,0.0,0.0,49,0.00,,,0.00,Wunderground v.1.15,2014-01-01 01:06:00,
2013-12-31 20:07:00,37.6,20.1,30.36,West,273,0.0,0.0,49,0.00,,,0.00,Wunderground v.1.15,2014-01-01 01:07:00,
2013-12-31 20:08:00,37.6,20.6,30.36,West,273,0.0,1.0,50,0.00,,,0.00,Wunderground v.1.15,2014-01-01 01:08:00,
2013-12-31 20:10:00,37.6,19.7,30.36,SW,232,1.0,1.0,48,0.00,,,0.00,Wunderground v.1.15,2014-01-01 01:10:00,
2013-12-31 20:11:00,37.7,20.2,30.36,SW,226,1.0,2.0,49,0.00,,,0.00,Wunderground v.1.15,2014-01-01 01:11:00,
2013-12-31 20:12:00,37.7,19.8,30.36,SW,226,2.0,2.0,48,0.00,,,0.00,Wunderground v.1.15,2014-01-01 01:12:00,
2013-12-31 20:13:00,37.7,19.8,30.36,SW,229,1.0,2.0,48,0.00,,,0.00,Wunderground v.1.15,2014-01-01 01:13:00,
2013-12-31 20:14:00,37.8,19.8,30.36,SW,229,0.0,2.0,48,0.00,,,0.00,Wunderground v.1.15,2014-01-01 01:14:00,
2013-12-31 20:15:00,37.9,19.9,30.37,SW,229,0.0,2.0,48,0.00,,,0.00,Wunderground v.1.15,2014-01-01 01:15:00,
2013-12-31 20:16:00,37.9,19.9,30.36,SW,230,1.0,2.0,48,0.00,,,0.00,Wunderground v.1.15,2014-01-01 01:16:00,
2013-12-31 20:17:00,38.0,20.0,30.36,SW,232,0.0,2.0,48,0.00,,,0.00,Wunderground v.1.15,2014-01-01 01:17:00,
2013-12-31 20:18:00,38.0,20.0,30.36,SW,232,1.0,2.0,48,0.00,,,0.00,Wunderground v.1.15,2014-01-01 01:18:00,
2013-12-31 20:19:00,38.0,20.0,30.36,SW,232,1.0,2.0,48,0.00,,,0.00,Wunderground v.1.15,2014-01-01 01:19:00,
2013-12-31 20:20:00,38.1,19.6,30.36,SW,232,0.0,1.0,47,0.00,,,0.00,Wunderground v.1.15,2014-01-01 01:20:00,
2013-12-31 20:21:00,38.1,19.6,30.36,SW,231,0.0,1.0,47,0.00,,,0.00,Wunderground v.1.15,2014-01-01 01:21:00,
2013-12-31 20:23:00,38.1,19.6,30.36,SW,232,1.0,1.0,47,0.00,,,0.00,Wunderground v.1.15,2014-01-01 01:23:00,
2013-12-31 20:24:00,38.1,20.1,30.36,SW,232,1.0,1.0,48,0.00,,,0.00,Wunderground v.1.15,2014-01-01 01:24:00,
2013-12-31 20:25:00,38.1,19.6,30.36,SW,232,1.0,1.0,47,0.00,,,0.00,Wunderground v.1.15,2014-01-01 01:25:00,
2013-12-31 20:26:00,38.1,19.6,30.36,SW,232,1.0,1.0,47,0.00,,,0.00,Wunderground v.1.15,2014-01-01 01:26:00,
2013-12-31 20:29:00,38.1,19.6,30.37,SW,232,1.0,1.0,47,0.00,,,0.00,Wunderground v.1.15,2014-01-01 01:29:00,
2013-12-31 20:30:00,38.1,19.6,30.37,SW,231,0.0,1.0,47,0.00,,,0.00,Wunderground v.1.15,2014-01-01 01:30:00,
2013-12-31 20:31:00,38.2,20.2,30.37,SW,232,0.0,1.0,48,0.00,,,0.00,Wunderground v.1.15,2014-01-01 01:31:00,
2013-12-31 20:34:00,38.2,19.7,30.37,SW,232,1.0,1.0,47,0.00,,,0.00,Wunderground v.1.15,2014-01-01 01:34:00,
2013-12-31 20:35:00,38.1,20.1,30.37,SW,232,0.0,1.0,48,0.00,,,0.00,Wunderground v.1.15,2014-01-01 01:35:00,
2013-12-31 20:36:00,38.1,20.1,30.37,SW,232,0.0,1.0,48,0.00,,,0.00,Wunderground v.1.15,2014-01-01 01:36:00,
2013-12-31 20:37:00,38.1,20.1,30.37,SW,224,1.0,1.0,48,0.00,,,0.00,Wunderground v.1.15,2014-01-01 01:37:00,
2013-12-31 20:39:00,38.2,20.2,30.37,SW,224,1.0,1.0,48,0.00,,,0.00,Wunderground v.1.15,2014-01-01 01:39:00,
2013-12-31 20:41:00,38.2,19.7,30.37,SW,224,1.0,1.0,47,0.00,,,0.00,Wunderground v.1.15,2014-01-01 01:41:00,
2013-12-31 20:42:00,38.2,20.2,30.37,SW,224,1.0,1.0,48,0.00,,,0.00,Wunderground v.1.15,2014-01-01 01:42:00,
2013-12-31 20:45:00,38.2,20.2,30.37,SW,225,1.0,1.0,48,0.00,,,0.00,Wunderground v.1.15,2014-01-01 01:45:00,
2013-12-31 20:46:00,38.1,20.1,30.37,SW,225,1.0,2.0,48,0.00,,,0.00,Wunderground v.1.15,2014-01-01 01:46:00,
2013-12-31 20:47:00,38.1,20.1,30.37,WSW,257,1.0,2.0,48,0.00,,,0.00,Wunderground v.1.15,2014-01-01 01:47:00,
2013-12-31 20:50:00,38.0,20.5,30.37,WSW,248,1.0,1.0,49,0.00,,,0.00,Wunderground v.1.15,2014-01-01 01:50:00,
2013-12-31 20:51:00,38.0,20.0,30.37,WSW,248,0.0,1.0,48,0.00,,,0.00,Wunderground v.1.15,2014-01-01 01:51:00,
2013-12-31 20:52:00,38.0,20.5,30.37,SW,236,2.0,2.0,49,0.00,,,0.00,Wunderground v.1.15,2014-01-01 01:52:00,
2013-12-31 20:53:00,37.9,20.4,30.37,SW,236,1.0,2.0,49,0.00,,,0.00,Wunderground v.1.15,2014-01-01 01:53:00,
2013-12-31 20:55:00,37.9,20.4,30.37,SW,236,1.0,2.0,49,0.00,,,0.00,Wunderground v.1.15,2014-01-01 01:55:00,
2013-12-31 20:56:00,37.9,20.4,30.37,SW,236,0.0,2.0,49,0.00,,,0.00,Wunderground v.1.15,2014-01-01 01:56:00,
2013-12-31 20:57:00,37.9,20.4,30.37,SW,236,1.0,2.0,49,0.00,,,0.00,Wunderground v.1.15,2014-01-01 01:57:00,
2013-12-31 20:58:00,37.8,20.3,30.37,WSW,238,1.0,2.0,49,0.00,,,0.00,Wunderground v.1.15,2014-01-01 01:58:00,
2013-12-31 21:00:00,37.6,20.1,30.37,WSW,238,0.0,1.0,49,0.00,,,0.00,Wunderground v.1.15,2014-01-01 02:00:00,
2013-12-31 21:01:00,37.5,20.1,30.37,WSW,238,0.0,1.0,49,0.00,,,0.00,Wunderground v.1.15,2014-01-01 02:01:00,
2013-12-31 21:02:00,37.4,20.0,30.37,WSW,238,1.0,1.0,49,0.00,,,0.00,Wunderground v.1.15,2014-01-01 02:02:00,
2013-12-31 21:03:00,37.3,20.3,30.37,WSW,238,0.0,1.0,50,0.00,,,0.00,Wunderground v.1.15,2014-01-01 02:03:00,
2013-12-31 21:06:00,37.0,20.1,30.37,West,278,2.0,2.0,50,0.00,,,0.00,Wunderground v.1.15,2014-01-01 02:06:00,
2013-12-31 21:07:00,36.9,20.4,30.37,WSW,257,1.0,2.0,51,0.00,,,0.00,Wunderground v.1.15,2014-01-01 02:07:00,
2013-12-31 21:08:00,36.9,20.4,30.37,WSW,257,0.0,2.0,51,0.00,,,0.00,Wunderground v.1.15,2014-01-01 02:08:00,
2013-12-31 21:09:00,36.9,20.4,30.37,WSW,255,0.0,2.0,51,0.00,,,0.00,Wunderground v.1.15,2014-01-01 02:09:00,
2013-12-31 21:11:00,36.9,20.9,30.37,WSW,255,0.0,1.0,52,0.00,,,0.00,Wunderground v.1.15,2014-01-01 02:11:00,
2013-12-31 21:12:00,36.9,20.4,30.37,WSW,255,0.0,1.0,51,0.00,,,0.00,Wunderground v.1.15,2014-01-01 02:12:00,
2013-12-31 21:14:00,36.9,20.4,30.38,WSW,255,0.0,1.0,51,0.00,,,0.00,Wunderground v.1.15,2014-01-01 02:14:00,
2013-12-31 21:15:00,36.9,21.3,30.38,WSW,255,0.0,1.0,53,0.00,,,0.00,Wunderground v.1.15,2014-01-01 02:15:00,
2013-12-31 21:16:00,36.9,20.9,30.38,WSW,255,0.0,1.0,52,0.00,,,0.00,Wunderground v.1.15,2014-01-01 02:16:00,
2013-12-31 21:17:00,36.8,20.8,30.38,WSW,255,0.0,1.0,52,0.00,,,0.00,Wunderground v.1.15,2014-01-01 02:17:00,
2013-12-31 21:19:00,36.8,20.8,30.38,WSW,253,0.0,1.0,52,0.00,,,0.00,Wunderground v.1.15,2014-01-01 02:19:00,
2013-12-31 21:20:00,36.7,20.7,30.38,WSW,245,0.0,0.0,52,0.00,,,0.00,Wunderground v.1.15,2014-01-01 02:20:00,
2013-12-31 21:21:00,36.7,20.7,30.38,WSW,245,0.0,0.0,52,0.00,,,0.00,Wunderground v.1.15,2014-01-01 02:21:00,
2013-12-31 21:22:00,36.7,20.7,30.38,WSW,245,0.0,0.0,52,0.00,,,0.00,Wunderground v.1.15,2014-01-01 02:22:00,
2013-12-31 21:24:00,36.6,20.6,30.38,WSW,245,0.0,0.0,52,0.00,,,0.00,Wunderground v.1.15,2014-01-01 02:24:00,
2013-12-31 21:26:00,36.5,21.0,30.38,WSW,245,0.0,0.0,53,0.00,,,0.00,Wunderground v.1.15,2014-01-01 02:26:00,
2013-12-31 21:27:00,36.4,21.3,30.38,WSW,245,0.0,0.0,54,0.00,,,0.00,Wunderground v.1.15,2014-01-01 02:27:00,
2013-12-31 21:28:00,36.3,21.7,30.38,WSW,245,0.0,0.0,55,0.00,,,0.00,Wunderground v.1.15,2014-01-01 02:28:00,
2013-12-31 21:29:00,36.2,21.1,30.38,WSW,245,0.0,0.0,54,0.00,,,0.00,Wunderground v.1.15,2014-01-01 02:29:00,
2013-12-31 21:31:00,35.9,20.9,30.38,WSW,244,0.0,0.0,54,0.00,,,0.00,Wunderground v.1.15,2014-01-01 02:31:00,
2013-12-31 21:32:00,35.8,21.2,30.38,WSW,245,0.0,0.0,55,0.00,,,0.00,Wunderground v.1.15,2014-01-01 02:32:00,
2013-12-31 21:33:00,35.8,21.6,30.38,WSW,245,0.0,0.0,56,0.00,,,0.00,Wunderground v.1.15,2014-01-01 02:33:00,
2013-12-31 21:34:00,35.7,21.5,30.38,WSW,245,0.0,0.0,56,0.00,,,0.00,Wunderground v.1.15,2014-01-01 02:34:00,
2013-12-31 21:37:00,35.4,20.8,30.38,WSW,245,0.0,0.0,55,0.00,,,0.00,Wunderground v.1.15,2014-01-01 02:37:00,
2013-12-31 21:38:00,35.4,20.8,30.38,WSW,245,0.0,0.0,55,0.00,,,0.00,Wunderground v.1.15,2014-01-01 02:38:00,
2013-12-31 21:39:00,35.4,20.8,30.38,WSW,245,0.0,0.0,55,0.00,,,0.00,Wunderground v.1.15,2014-01-01 02:39:00,
2013-12-31 21:40:00,35.4,20.8,30.38,WSW,245,0.0,0.0,55,0.00,,,0.00,Wunderground v.1.15,2014-01-01 02:40:00,
2013-12-31 21:42:00,35.3,20.7,30.38,WSW,245,0.0,0.0,55,0.00,,,0.00,Wunderground v.1.15,2014-01-01 02:42:00,
2013-12-31 21:43:00,35.2,20.6,30.38,WSW,245,0.0,0.0,55,0.00,,,0.00,Wunderground v.1.15,2014-01-01 02:43:00,
2013-12-31 21:44:00,35.2,20.6,30.38,WSW,245,0.0,0.0,55,0.00,,,0.00,Wunderground v.1.15,2014-01-01 02:44:00,
2013-12-31 21:45:00,35.1,21.4,30.38,WSW,245,0.0,0.0,57,0.00,,,0.00,Wunderground v.1.15,2014-01-01 02:45:00,
2013-12-31 21:47:00,34.9,22.8,30.38,WSW,245,0.0,0.0,61,0.00,,,0.00,Wunderground v.1.15,2014-01-01 02:47:00,
2013-12-31 21:48:00,34.7,21.8,30.38,WSW,245,0.0,0.0,59,0.00,,,0.00,Wunderground v.1.15,2014-01-01 02:48:00,
2013-12-31 21:49:00,34.6,21.7,30.38,WSW,245,0.0,0.0,59,0.00,,,0.00,Wunderground v.1.15,2014-01-01 02:49:00,
2013-12-31 21:50:00,34.5,21.6,30.38,WSW,245,0.0,0.0,59,0.00,,,0.00,Wunderground v.1.15,2014-01-01 02:50:00,
2013-12-31 21:52:00,34.3,21.4,30.38,WSW,245,0.0,0.0,59,0.00,,,0.00,Wunderground v.1.15,2014-01-01 02:52:00,
2013-12-31 21:53:00,34.2,21.4,30.38,WSW,245,0.0,0.0,59,0.00,,,0.00,Wunderground v.1.15,2014-01-01 02:53:00,
2013-12-31 21:54:00,34.1,21.3,30.38,WSW,245,0.0,0.0,59,0.00,,,0.00,Wunderground v.1.15,2014-01-01 02:54:00,
2013-12-31 21:55:00,34.1,21.3,30.38,WSW,245,0.0,0.0,59,0.00,,,0.00,Wunderground v.1.15,2014-01-01 02:55:00,
2013-12-31 21:56:00,34.0,20.8,30.38,WSW,245,0.0,0.0,58,0.00,,,0.00,Wunderground v.1.15,2014-01-01 02:56:00,
2013-12-31 21:57:00,34.0,21.2,30.38,WSW,245,0.0,0.0,59,0.00,,,0.00,Wunderground v.1.15,2014-01-01 02:57:00,
2013-12-31 21:58:00,34.1,21.7,30.38,WSW,245,0.0,0.0,60,0.00,,,0.00,Wunderground v.1.15,2014-01-01 02:58:00,
2013-12-31 21:59:00,34.1,21.7,30.38,WSW,245,0.0,0.0,60,0.00,,,0.00,Wunderground v.1.15,2014-01-01 02:59:00,
2013-12-31 22:00:00,34.1,22.0,30.38,WSW,245,0.0,0.0,61,0.00,,,0.00,Wunderground v.1.15,2014-01-01 03:00:00,
2013-12-31 22:02:00,34.0,22.3,30.38,WSW,245,0.0,0.0,62,0.00,,,0.00,Wunderground v.1.15,2014-01-01 03:02:00,
2013-12-31 22:04:00,33.8,22.1,30.38,WSW,245,0.0,0.0,62,0.00,,,0.00,Wunderground v.1.15,2014-01-01 03:04:00,
2013-12-31 22:05:00,33.8,22.1,30.38,WSW,245,0.0,0.0,62,0.00,,,0.00,Wunderground v.1.15,2014-01-01 03:05:00,
2013-12-31 22:07:00,33.7,22.1,30.38,WSW,245,0.0,0.0,62,0.00,,,0.00,Wunderground v.1.15,2014-01-01 03:07:00,
2013-12-31 22:10:00,33.5,21.5,30.38,WSW,244,0.0,0.0,61,0.00,,,0.00,Wunderground v.1.15,2014-01-01 03:10:00,
2013-12-31 22:11:00,33.4,21.4,30.38,WSW,245,0.0,0.0,61,0.00,,,0.00,Wunderground v.1.15,2014-01-01 03:11:00,
2013-12-31 22:12:00,33.4,21.8,30.38,WSW,245,0.0,0.0,62,0.00,,,0.00,Wunderground v.1.15,2014-01-01 03:12:00,
2013-12-31 22:13:00,33.3,21.3,30.38,WSW,245,0.0,0.0,61,0.00,,,0.00,Wunderground v.1.15,2014-01-01 03:13:00,
2013-12-31 22:15:00,33.2,21.2,30.38,WSW,245,0.0,0.0,61,0.00,,,0.00,Wunderground v.1.15,2014-01-01 03:15:00,
2013-12-31 22:16:00,33.2,21.2,30.38,WSW,245,0.0,0.0,61,0.00,,,0.00,Wunderground v.1.15,2014-01-01 03:16:00,
2013-12-31 22:17:00,33.1,21.1,30.38,WSW,245,0.0,0.0,61,0.00,,,0.00,Wunderground v.1.15,2014-01-01 03:17:00,
2013-12-31 22:18:00,33.0,21.0,30.38,WSW,245,0.0,0.0,61,0.00,,,0.00,Wunderground v.1.15,2014-01-01 03:18:00,
2013-12-31 22:19:00,33.0,21.0,30.38,WSW,245,0.0,0.0,61,0.00,,,0.00,Wunderground v.1.15,2014-01-01 03:19:00,
2013-12-31 22:20:00,32.8,20.8,30.38,WSW,244,0.0,0.0,61,0.00,,,0.00,Wunderground v.1.15,2014-01-01 03:20:00,
2013-12-31 22:21:00,32.7,20.7,30.38,WSW,245,0.0,0.0,61,0.00,,,0.00,Wunderground v.1.15,2014-01-01 03:21:00,
2013-12-31 22:22:00,32.7,20.7,30.38,WSW,245,0.0,0.0,61,0.00,,,0.00,Wunderground v.1.15,2014-01-01 03:22:00,
2013-12-31 22:23:00,32.5,20.5,30.38,WSW,245,0.0,0.0,61,0.00,,,0.00,Wunderground v.1.15,2014-01-01 03:23:00,
2013-12-31 22:24:00,32.4,20.4,30.38,WSW,245,0.0,0.0,61,0.00,,,0.00,Wunderground v.1.15,2014-01-01 03:24:00,
2013-12-31 22:25:00,32.4,20.8,30.38,WSW,245,0.0,0.0,62,0.00,,,0.00,Wunderground v.1.15,2014-01-01 03:25:00,
2013-12-31 22:27:00,32.2,21.0,30.38,WSW,245,0.0,0.0,63,0.00,,,0.00,Wunderground v.1.15,2014-01-01 03:27:00,
2013-12-31 22:28:00,32.1,20.9,30.38,WSW,245,0.0,0.0,63,0.00,,,0.00,Wunderground v.1.15,2014-01-01 03:28:00,
2013-12-31 22:30:00,32.0,21.2,30.38,WSW,245,0.0,0.0,64,0.00,,,0.00,Wunderground v.1.15,2014-01-01 03:30:00,
2013-12-31 22:32:00,31.9,21.1,30.38,WSW,245,0.0,0.0,64,0.00,,,0.00,Wunderground v.1.15,2014-01-01 03:32:00,
2013-12-31 22:33:00,31.9,21.1,30.39,WSW,245,0.0,0.0,64,0.00,,,0.00,Wunderground v.1.15,2014-01-01 03:33:00,
2013-12-31 22:34:00,31.9,21.1,30.39,WSW,245,0.0,0.0,64,0.00,,,0.00,Wunderground v.1.15,2014-01-01 03:34:00,
2013-12-31 22:35:00,31.9,21.1,30.39,WSW,245,0.0,0.0,64,0.00,,,0.00,Wunderground v.1.15,2014-01-01 03:35:00,
2013-12-31 22:37:00,31.9,20.7,30.39,WSW,245,0.0,0.0,63,0.00,,,0.00,Wunderground v.1.15,2014-01-01 03:37:00,
2013-12-31 22:39:00,31.8,20.6,30.39,WSW,245,0.0,0.0,63,0.00,,,0.00,Wunderground v.1.15,2014-01-01 03:39:00,
2013-12-31 22:40:00,31.8,21.0,30.39,WSW,244,0.0,0.0,64,0.00,,,0.00,Wunderground v.1.15,2014-01-01 03:40:00,
2013-12-31 22:42:00,31.6,21.2,30.39,WSW,245,0.0,0.0,65,0.00,,,0.00,Wunderground v.1.15,2014-01-01 03:42:00,
2013-12-31 22:44:00,31.5,21.4,30.39,WSW,245,0.0,0.0,66,0.00,,,0.00,Wunderground v.1.15,2014-01-01 03:44:00,
2013-12-31 22:45:00,31.5,21.4,30.39,WSW,245,0.0,0.0,66,0.00,,,0.00,Wunderground v.1.15,2014-01-01 03:45:00,
2013-12-31 22:47:00,31.4,22.7,30.39,WSW,245,0.0,0.0,70,0.00,,,0.00,Wunderground v.1.15,2014-01-01 03:47:00,
2013-12-31 22:48:00,31.4,23.4,30.39,WSW,245,0.0,0.0,72,0.00,,,0.00,Wunderground v.1.15,2014-01-01 03:48:00,
2013-12-31 22:49:00,31.4,23.7,30.39,WSW,245,0.0,0.0,73,0.00,,,0.00,Wunderground v.1.15,2014-01-01 03:49:00,
2013-12-31 22:50:00,31.3,23.6,30.38,WSW,245,0.0,0.0,73,0.00,,,0.00,Wunderground v.1.15,2014-01-01 03:50:00,
2013-12-31 22:52:00,31.2,23.5,30.39,WSW,245,0.0,0.0,73,0.00,,,0.00,Wunderground v.1.15,2014-01-01 03:52:00,
2013-12-31 22:53:00,31.1,23.5,30.39,WSW,245,0.0,0.0,73,0.00,,,0.00,Wunderground v.1.15,2014-01-01 03:53:00,
2013-12-31 22:54:00,31.1,23.5,30.39,WSW,245,0.0,0.0,73,0.00,,,0.00,Wunderground v.1.15,2014-01-01 03:54:00,
2013-12-31 22:55:00,31.0,22.7,30.39,WSW,245,0.0,0.0,71,0.00,,,0.00,Wunderground v.1.15,2014-01-01 03:55:00,
2013-12-31 22:56:00,30.9,22.3,30.39,WSW,245,0.0,0.0,70,0.00,,,0.00,Wunderground v.1.15,2014-01-01 03:56:00,
2013-12-31 22:58:00,30.8,23.2,30.39,WSW,245,0.0,0.0,73,0.00,,,0.00,Wunderground v.1.15,2014-01-01 03:58:00,
2013-12-31 22:59:00,30.8,23.2,30.39,WSW,245,0.0,0.0,73,0.00,,,0.00,Wunderground v.1.15,2014-01-01 03:59:00,
2013-12-31 23:01:00,30.8,23.8,30.39,WSW,245,0.0,0.0,75,0.00,,,0.00,Wunderground v.1.15,2014-01-01 04:01:00,
2013-12-31 23:03:00,30.7,24.0,30.39,WSW,245,0.0,0.0,76,0.00,,,0.00,Wunderground v.1.15,2014-01-01 04:03:00,
2013-12-31 23:04:00,30.7,24.3,30.39,WSW,245,0.0,0.0,77,0.00,,,0.00,Wunderground v.1.15,2014-01-01 04:04:00,
2013-12-31 23:05:00,30.7,24.7,30.39,WSW,245,0.0,0.0,78,0.00,,,0.00,Wunderground v.1.15,2014-01-01 04:05:00,
2013-12-31 23:06:00,30.7,24.7,30.39,WSW,245,0.0,0.0,78,0.00,,,0.00,Wunderground v.1.15,2014-01-01 04:06:00,
2013-12-31 23:07:00,30.7,24.7,30.39,WSW,245,0.0,0.0,78,0.00,,,0.00,Wunderground v.1.15,2014-01-01 04:07:00,
2013-12-31 23:09:00,30.7,24.7,30.39,WSW,245,0.0,0.0,78,0.00,,,0.00,Wunderground v.1.15,2014-01-01 04:09:00,
2013-12-31 23:10:00,30.6,24.9,30.39,WSW,245,0.0,0.0,79,0.00,,,0.00,Wunderground v.1.15,2014-01-01 04:10:00,
2013-12-31 23:11:00,30.6,24.9,30.39,WSW,245,0.0,0.0,79,0.00,,,0.00,Wunderground v.1.15,2014-01-01 04:11:00,
2013-12-31 23:13:00,30.5,24.8,30.39,WSW,245,0.0,0.0,79,0.00,,,0.00,Wunderground v.1.15,2014-01-01 04:13:00,
2013-12-31 23:14:00,30.5,24.8,30.39,WSW,245,0.0,0.0,79,0.00,,,0.00,Wunderground v.1.15,2014-01-01 04:14:00,
2013-12-31 23:15:00,30.4,24.7,30.39,WSW,245,0.0,0.0,79,0.00,,,0.00,Wunderground v.1.15,2014-01-01 04:15:00,
2013-12-31 23:17:00,30.2,23.9,30.39,WSW,245,0.0,0.0,77,0.00,,,0.00,Wunderground v.1.15,2014-01-01 04:17:00,
2013-12-31 23:18:00,30.1,23.4,30.39,WSW,245,0.0,0.0,76,0.00,,,0.00,Wunderground v.1.15,2014-01-01 04:18:00,
2013-12-31 23:19:00,30.1,23.4,30.39,WSW,245,0.0,0.0,76,0.00,,,0.00,Wunderground v.1.15,2014-01-01 04:19:00,
2013-12-31 23:20:00,30.0,23.4,30.39,WSW,245,0.0,0.0,76,0.00,,,0.00,Wunderground v.1.15,2014-01-01 04:20:00,
2013-12-31 23:23:00,29.8,23.2,30.38,WSW,245,0.0,0.0,76,0.00,,,0.00,Wunderground v.1.15,2014-01-01 04:23:00,
2013-12-31 23:24:00,29.6,23.3,30.38,WSW,245,0.0,0.0,77,0.00,,,0.00,Wunderground v.1.15,2014-01-01 04:24:00,
2013-12-31 23:25:00,29.6,23.3,30.38,WSW,245,0.0,0.0,77,0.00,,,0.00,Wunderground v.1.15,2014-01-01 04:25:00,
2013-12-31 23:26:00,29.6,23.6,30.38,WSW,245,0.0,0.0,78,0.00,,,0.00,Wunderground v.1.15,2014-01-01 04:26:00,
2013-12-31 23:28:00,29.4,23.4,30.38,WSW,245,0.0,0.0,78,0.00,,,0.00,Wunderground v.1.15,2014-01-01 04:28:00,
2013-12-31 23:29:00,29.4,23.1,30.38,WSW,245,0.0,0.0,77,0.00,,,0.00,Wunderground v.1.15,2014-01-01 04:29:00,
2013-12-31 23:30:00,29.3,23.0,30.38,WSW,245,0.0,0.0,77,0.00,,,0.00,Wunderground v.1.15,2014-01-01 04:30:00,
2013-12-31 23:31:00,29.2,22.9,30.38,WSW,245,0.0,0.0,77,0.00,,,0.00,Wunderground v.1.15,2014-01-01 04:31:00,
2013-12-31 23:34:00,29.0,22.4,30.38,WSW,245,0.0,0.0,76,0.00,,,0.00,Wunderground v.1.15,2014-01-01 04:34:00,
2013-12-31 23:35:00,28.9,22.6,30.38,WSW,245,0.0,0.0,77,0.00,,,0.00,Wunderground v.1.15,2014-01-01 04:35:00,
2013-12-31 23:36:00,28.9,22.6,30.38,WSW,245,0.0,0.0,77,0.00,,,0.00,Wunderground v.1.15,2014-01-01 04:36:00,
2013-12-31 23:39:00,28.8,22.8,30.39,WSW,245,0.0,0.0,78,0.00,,,0.00,Wunderground v.1.15,2014-01-01 04:39:00,
2013-12-31 23:40:00,28.8,22.8,30.39,WSW,245,0.0,0.0,78,0.00,,,0.00,Wunderground v.1.15,2014-01-01 04:40:00,
2013-12-31 23:41:00,28.8,22.8,30.38,WSW,245,0.0,0.0,78,0.00,,,0.00,Wunderground v.1.15,2014-01-01 04:41:00,
2013-12-31 23:44:00,28.7,22.7,30.38,WSW,245,0.0,0.0,78,0.00,,,0.00,Wunderground v.1.15,2014-01-01 04:44:00,
2013-12-31 23:45:00,28.6,22.6,30.38,WSW,245,0.0,0.0,78,0.00,,,0.00,Wunderground v.1.15,2014-01-01 04:45:00,
2013-12-31 23:46:00,28.6,22.6,30.38,WSW,245,0.0,0.0,78,0.00,,,0.00,Wunderground v.1.15,2014-01-01 04:46:00,
2013-12-31 23:50:00,28.5,22.5,30.38,WSW,245,0.0,0.0,78,0.00,,,0.00,Wunderground v.1.15,2014-01-01 04:50:00,
2013-12-31 23:51:00,28.4,22.4,30.38,WSW,245,0.0,0.0,78,0.00,,,0.00,Wunderground v.1.15,2014-01-01 04:51:00,
2013-12-31 23:52:00,28.4,22.4,30.38,WSW,245,0.0,0.0,78,0.00,,,0.00,Wunderground v.1.15,2014-01-01 04:52:00,
2013-12-31 23:55:00,28.3,22.3,30.38,WSW,244,0.0,0.0,78,0.00,,,0.00,Wunderground v.1.15,2014-01-01 04:55:00,
2013-12-31 23:56:00,28.2,22.5,30.39,WSW,245,0.0,0.0,79,0.00,,,0.00,Wunderground v.1.15,2014-01-01 04:56:00,
2013-12-31 23:57:00,28.2,22.5,30.38,WSW,245,0.0,0.0,79,0.00,,,0.00,Wunderground v.1.15,2014-01-01 04:57:00,
2013-12-31 23:58:00,28.2,22.8,30.38,WSW,245,0.0,0.0,80,0.00,,,0.00,Wunderground v.1.15,2014-01-01 04:58:00,